Time,TemperatureF,DewpointF,PressureIn,WindDirection,WindDirectionDegrees,WindSpeedMPH,WindSpeedGustMPH,Humidity,HourlyPrecipIn,Conditions,Clouds,dailyrainin,SoftwareType,DateUTC
2013-12-23 00:02:00,21.7,19.5,28.91,WNW,292,3.5,3.5,91,0.00,CLR,,0.00,WeatherDisplay:10.37,2013-12-23 06:02:00,
2013-12-23 00:03:00,21.7,19.5,28.91,NW,315,3.5,3.5,91,0.00,CLR,,0.00,WeatherDisplay:10.37,2013-12-23 06:03:00,
2013-12-23 00:04:00,21.7,19.5,28.91,WNW,292,3.5,3.5,91,0.00,CLR,,0.00,WeatherDisplay:10.37,2013-12-23 06:04:00,
2013-12-23 00:07:00,21.7,19.5,28.91,WNW,292,6.4,6.4,91,0.00,CLR,,0.00,WeatherDisplay:10.37,2013-12-23 06:07:00,
2013-12-23 00:08:00,21.7,19.5,28.91,WNW,292,6.4,6.4,91,0.00,CLR,,0.00,WeatherDisplay:10.37,2013-12-23 06:08:00,
2013-12-23 00:09:00,21.7,19.5,28.91,West,270,6.9,6.9,91,0.00,CLR,,0.00,WeatherDisplay:10.37,2013-12-23 06:09:00,
2013-12-23 00:13:00,21.7,19.3,28.91,WNW,292,4.6,4.6,90,0.00,CLR,,0.00,WeatherDisplay:10.37,2013-12-23 06:13:00,
2013-12-23 00:14:00,21.7,19.3,28.91,West,270,2.6,2.6,90,0.00,CLR,,0.00,WeatherDisplay:10.37,2013-12-23 06:14:00,
2013-12-23 00:15:00,21.7,19.3,28.91,West,270,3.5,3.5,90,0.00,CLR,,0.00,WeatherDisplay:10.37,2013-12-23 06:15:00,
2013-12-23 00:18:00,21.7,19.3,28.91,WNW,292,2.3,2.9,90,0.00,CLR,,0.00,WeatherDisplay:10.37,2013-12-23 06:18:00,
2013-12-23 00:19:00,21.6,19.1,28.91,West,270,3.8,3.8,90,0.00,CLR,,0.00,WeatherDisplay:10.37,2013-12-23 06:19:00,
2013-12-23 00:20:00,21.6,19.1,28.91,WNW,292,6.9,6.9,90,0.00,CLR,,0.00,WeatherDisplay:10.37,2013-12-23 06:20:00,
2013-12-23 00:24:00,21.4,18.4,28.91,NW,315,8.1,8.1,88,0.00,CLR,,0.00,WeatherDisplay:10.37,2013-12-23 06:24:00,
2013-12-23 00:25:00,21.4,18.1,28.91,WNW,292,8.1,8.1,87,0.00,CLR,,0.00,WeatherDisplay:10.37,2013-12-23 06:25:00,
2013-12-23 00:29:00,21.2,17.7,28.91,WNW,292,4.6,4.6,86,0.00,CLR,,0.00,WeatherDisplay:10.37,2013-12-23 06:29:00,
2013-12-23 00:30:00,21.2,17.7,28.91,NW,315,4.6,4.6,86,0.00,CLR,,0.00,WeatherDisplay:10.37,2013-12-23 06:30:00,
2013-12-23 00:31:00,21.2,17.7,28.91,WNW,292,4.6,4.6,86,0.00,CLR,,0.00,WeatherDisplay:10.37,2013-12-23 06:31:00,
2013-12-23 00:34:00,21.2,17.7,28.91,WNW,292,6.9,6.9,86,0.00,CLR,,0.00,WeatherDisplay:10.37,2013-12-23 06:34:00,
2013-12-23 00:35:00,21.2,17.7,28.91,West,270,6.2,6.2,86,0.00,CLR,,0.00,WeatherDisplay:10.37,2013-12-23 06:35:00,
2013-12-23 00:36:00,21.2,17.7,28.91,West,270,6.2,6.2,86,0.00,CLR,,0.00,WeatherDisplay:10.37,2013-12-23 06:36:00,
2013-12-23 00:39:00,20.8,17.3,28.91,NW,315,6.9,6.9,86,0.00,CLR,,0.00,WeatherDisplay:10.37,2013-12-23 06:39:00,
2013-12-23 00:40:00,20.8,17.0,28.91,West,270,5.8,5.8,85,0.00,CLR,,0.00,WeatherDisplay:10.37,2013-12-23 06:40:00,
2013-12-23 00:41:00,20.7,16.9,28.91,NW,315,7.4,7.4,85,0.00,CLR,,0.00,WeatherDisplay:10.37,2013-12-23 06:41:00,
2013-12-23 00:42:00,20.7,16.9,28.91,NW,315,6.9,6.9,85,0.00,CLR,,0.00,WeatherDisplay:10.37,2013-12-23 06:42:00,
2013-12-23 00:44:00,20.5,16.4,28.91,WNW,292,6.9,6.9,84,0.00,CLR,,0.00,WeatherDisplay:10.37,2013-12-23 06:44:00,
2013-12-23 00:45:00,20.3,16.2,28.91,WNW,292,6.9,6.9,84,0.00,CLR,,0.00,WeatherDisplay:10.37,2013-12-23 06:45:00,
2013-12-23 00:46:00,20.3,16.0,28.91,WNW,292,5.8,5.8,83,0.00,CLR,,0.00,WeatherDisplay:10.37,2013-12-23 06:46:00,
2013-12-23 00:47:00,20.3,16.0,28.91,WNW,292,6.9,6.9,83,0.00,CLR,,0.00,WeatherDisplay:10.37,2013-12-23 06:47:00,
2013-12-23 00:50:00,20.1,15.5,28.91,West,270,5.8,6.2,82,0.00,CLR,,0.00,WeatherDisplay:10.37,2013-12-23 06:50:00,
2013-12-23 00:51:00,20.1,15.5,28.91,West,270,6.9,6.9,82,0.00,CLR,,0.00,WeatherDisplay:10.37,2013-12-23 06:51:00,
2013-12-23 00:52:00,19.9,15.0,28.91,West,270,4.6,4.6,81,0.00,CLR,,0.00,WeatherDisplay:10.37,2013-12-23 06:52:00,
2013-12-23 00:55:00,19.8,14.9,28.88,WNW,292,6.4,6.4,81,0.00,CLR,,0.00,WeatherDisplay:10.37,2013-12-23 06:55:00,
2013-12-23 00:56:00,19.6,14.7,28.88,NW,315,4.7,4.7,81,0.00,CLR,,0.00,WeatherDisplay:10.37,2013-12-23 06:56:00,
2013-12-23 00:57:00,19.6,14.7,28.88,WNW,292,7.4,7.4,81,0.00,CLR,,0.00,WeatherDisplay:10.37,2013-12-23 06:57:00,
2013-12-23 00:58:00,19.6,14.7,28.88,NW,315,6.9,6.9,81,0.00,CLR,,0.00,WeatherDisplay:10.37,2013-12-23 06:58:00,
2013-12-23 01:00:00,19.4,14.5,28.88,NW,315,4.6,4.6,81,0.00,CLR,,0.00,WeatherDisplay:10.37,2013-12-23 07:00:00,
2013-12-23 01:01:00,19.4,14.5,28.88,NW,315,3.5,3.5,81,0.00,CLR,,0.00,WeatherDisplay:10.37,2013-12-23 07:01:00,
2013-12-23 01:02:00,19.4,14.5,28.88,WNW,292,3.5,3.5,81,0.00,CLR,,0.00,WeatherDisplay:10.37,2013-12-23 07:02:00,
2013-12-23 01:04:00,19.2,14.3,28.88,WNW,292,8.1,8.1,81,0.00,CLR,,0.00,WeatherDisplay:10.37,2013-12-23 07:04:00,
2013-12-23 01:05:00,19.2,14.3,28.88,West,270,8.1,8.1,81,0.00,CLR,,0.00,WeatherDisplay:10.37,2013-12-23 07:05:00,
2013-12-23 01:06:00,19.0,14.2,28.88,WNW,292,6.4,6.4,81,0.00,CLR,,0.00,WeatherDisplay:10.37,2013-12-23 07:06:00,
2013-12-23 01:07:00,19.0,14.2,28.88,NW,315,6.9,6.9,81,0.00,CLR,,0.00,WeatherDisplay:10.37,2013-12-23 07:07:00,
2013-12-23 01:08:00,19.0,14.2,28.88,North,0,5.8,5.8,81,0.00,CLR,,0.00,WeatherDisplay:10.37,2013-12-23 07:08:00,
2013-12-23 01:09:00,19.0,14.2,28.91,NNW,338,4.6,4.6,81,0.00,CLR,,0.00,WeatherDisplay:10.37,2013-12-23 07:09:00,
2013-12-23 01:10:00,19.0,14.2,28.91,NNW,338,4.6,4.6,81,0.00,CLR,,0.00,WeatherDisplay:10.37,2013-12-23 07:10:00,
2013-12-23 01:11:00,19.0,14.4,28.91,WNW,292,4.6,4.6,82,0.00,CLR,,0.00,WeatherDisplay:10.37,2013-12-23 07:11:00,
2013-12-23 01:12:00,18.9,14.3,28.91,WNW,292,4.6,4.6,82,0.00,CLR,,0.00,WeatherDisplay:10.37,2013-12-23 07:12:00,
2013-12-23 01:13:00,18.9,14.3,28.91,WNW,292,4.6,4.6,82,0.00,CLR,,0.00,WeatherDisplay:10.37,2013-12-23 07:13:00,
2013-12-23 01:15:00,18.9,14.3,28.91,NW,315,4.6,4.6,82,0.00,CLR,,0.00,WeatherDisplay:10.37,2013-12-23 07:15:00,
2013-12-23 01:16:00,18.9,14.3,28.91,WNW,292,6.9,6.9,82,0.00,CLR,,0.00,WeatherDisplay:10.37,2013-12-23 07:16:00,
2013-12-23 01:18:00,18.9,14.3,28.91,NW,315,4.6,4.6,82,0.00,CLR,,0.00,WeatherDisplay:10.37,2013-12-23 07:18:00,
2013-12-23 01:20:00,18.7,14.1,28.91,WNW,292,5.6,5.6,82,0.00,CLR,,0.00,WeatherDisplay:10.37,2013-12-23 07:20:00,
2013-12-23 01:21:00,18.7,14.1,28.91,NW,315,8.1,8.1,82,0.00,CLR,,0.00,WeatherDisplay:10.37,2013-12-23 07:21:00,
2013-12-23 01:23:00,18.7,14.1,28.91,NW,315,6.9,6.9,82,0.00,CLR,,0.00,WeatherDisplay:10.37,2013-12-23 07:23:00,
2013-12-23 01:24:00,18.7,14.1,28.91,West,270,6.9,6.9,82,0.00,CLR,,0.00,WeatherDisplay:10.37,2013-12-23 07:24:00,
2013-12-23 01:25:00,18.5,13.9,28.91,NW,315,5.8,5.8,82,0.00,CLR,,0.00,WeatherDisplay:10.37,2013-12-23 07:25:00,
2013-12-23 01:26:00,18.5,13.9,28.91,WNW,292,4.7,4.7,82,0.00,CLR,,0.00,WeatherDisplay:10.37,2013-12-23 07:26:00,
2013-12-23 01:28:00,18.5,13.9,28.91,WNW,292,5.8,5.8,82,0.00,CLR,,0.00,WeatherDisplay:10.37,2013-12-23 07:28:00,
2013-12-23 01:29:00,18.5,13.9,28.91,WNW,292,5.8,5.8,82,0.00,CLR,,0.00,WeatherDisplay:10.37,2013-12-23 07:29:00,
2013-12-23 01:30:00,18.5,13.9,28.91,NW,315,5.6,5.6,82,0.00,CLR,,0.00,WeatherDisplay:10.37,2013-12-23 07:30:00,
2013-12-23 01:31:00,18.5,13.9,28.91,NNW,338,5.8,5.8,82,0.00,CLR,,0.00,WeatherDisplay:10.37,2013-12-23 07:31:00,
2013-12-23 01:32:00,18.5,13.9,28.91,NW,315,5.8,5.8,82,0.00,CLR,,0.00,WeatherDisplay:10.37,2013-12-23 07:32:00,
2013-12-23 01:34:00,18.3,13.7,28.91,NW,315,5.8,5.8,82,0.00,CLR,,0.00,WeatherDisplay:10.37,2013-12-23 07:34:00,
2013-12-23 01:36:00,18.3,13.7,28.91,NW,315,4.9,4.9,82,0.00,CLR,,0.00,WeatherDisplay:10.37,2013-12-23 07:36:00,
2013-12-23 01:37:00,18.1,13.6,28.91,NW,315,4.3,4.3,82,0.00,CLR,,0.00,WeatherDisplay:10.37,2013-12-23 07:37:00,
2013-12-23 01:39:00,18.1,13.6,28.91,NW,315,3.5,3.5,82,0.00,CLR,,0.00,WeatherDisplay:10.37,2013-12-23 07:39:00,
2013-12-23 01:41:00,18.1,13.6,28.91,NW,315,5.8,5.8,82,0.00,CLR,,0.00,WeatherDisplay:10.37,2013-12-23 07:41:00,
2013-12-23 01:42:00,18.1,13.6,28.91,NW,315,5.8,5.8,82,0.00,CLR,,0.00,WeatherDisplay:10.37,2013-12-23 07:42:00,
2013-12-23 01:44:00,18.0,13.7,28.91,NW,315,5.8,5.8,83,0.00,CLR,,0.00,WeatherDisplay:10.37,2013-12-23 07:44:00,
2013-12-23 01:45:00,18.0,13.7,28.91,WNW,292,3.5,3.5,83,0.00,CLR,,0.00,WeatherDisplay:10.37,2013-12-23 07:45:00,
2013-12-23 01:46:00,17.8,13.5,28.91,NW,315,3.5,3.5,83,0.00,CLR,,0.00,WeatherDisplay:10.37,2013-12-23 07:46:00,
2013-12-23 01:47:00,17.8,13.5,28.91,West,270,3.6,3.6,83,0.00,CLR,,0.00,WeatherDisplay:10.37,2013-12-23 07:47:00,
2013-12-23 01:49:00,17.8,13.5,28.91,WNW,292,3.6,3.6,83,0.00,CLR,,0.00,WeatherDisplay:10.37,2013-12-23 07:49:00,
2013-12-23 01:50:00,17.8,13.5,28.91,WNW,292,3.5,3.5,83,0.00,CLR,,0.00,WeatherDisplay:10.37,2013-12-23 07:50:00,
2013-12-23 01:52:00,17.8,13.5,28.91,NW,315,4.6,4.6,83,0.00,CLR,,0.00,WeatherDisplay:10.37,2013-12-23 07:52:00,
2013-12-23 01:53:00,17.8,13.5,28.91,WNW,292,4.6,4.6,83,0.00,CLR,,0.00,WeatherDisplay:10.37,2013-12-23 07:53:00,
2013-12-23 01:54:00,17.8,13.5,28.94,WNW,292,4.6,4.6,83,0.00,CLR,,0.00,WeatherDisplay:10.37,2013-12-23 07:54:00,
2013-12-23 01:55:00,17.8,13.5,28.94,WNW,292,4.6,4.6,83,0.00,CLR,,0.00,WeatherDisplay:10.37,2013-12-23 07:55:00,
2013-12-23 01:56:00,17.8,13.5,28.94,NNW,338,3.5,3.5,83,0.00,CLR,,0.00,WeatherDisplay:10.37,2013-12-23 07:56:00,
2013-12-23 01:57:00,17.8,13.5,28.94,WNW,292,3.5,3.5,83,0.00,CLR,,0.00,WeatherDisplay:10.37,2013-12-23 07:57:00,
2013-12-23 01:58:00,17.8,13.5,28.94,West,270,4.6,4.6,83,0.00,CLR,,0.00,WeatherDisplay:10.37,2013-12-23 07:58:00,
2013-12-23 01:59:00,17.8,13.5,28.94,WNW,292,5.9,5.9,83,0.00,CLR,,0.00,WeatherDisplay:10.37,2013-12-23 07:59:00,
2013-12-23 02:00:00,17.8,13.5,28.94,WNW,292,5.8,5.8,83,0.00,CLR,,0.00,WeatherDisplay:10.37,2013-12-23 08:00:00,
2013-12-23 02:01:00,17.8,13.5,28.94,West,270,3.5,3.5,83,0.00,CLR,,0.00,WeatherDisplay:10.37,2013-12-23 08:01:00,
2013-12-23 02:02:00,17.6,13.3,28.94,WNW,292,2.9,2.9,83,0.00,CLR,,0.00,WeatherDisplay:10.37,2013-12-23 08:02:00,
2013-12-23 02:03:00,17.6,13.3,28.94,WNW,292,5.8,5.8,83,0.00,CLR,,0.00,WeatherDisplay:10.37,2013-12-23 08:03:00,
2013-12-23 02:05:00,17.6,13.3,28.94,WNW,288,3.0,8.0,83,0.00,CLR,,0.00,WeatherDisplay:10.37,2013-12-23 08:05:00,
2013-12-23 02:06:00,17.4,12.9,28.94,West,270,3.5,3.5,82,0.00,CLR,,0.00,WeatherDisplay:10.37,2013-12-23 08:06:00,
2013-12-23 02:07:00,17.4,12.9,28.94,West,270,4.6,4.6,82,0.00,CLR,,0.00,WeatherDisplay:10.37,2013-12-23 08:07:00,
2013-12-23 02:09:00,17.1,12.5,28.94,NNE,22,3.5,3.5,82,0.00,CLR,,0.00,WeatherDisplay:10.37,2013-12-23 08:09:00,
2013-12-23 02:11:00,16.9,12.1,28.94,WSW,248,3.5,3.5,81,0.00,CLR,,0.00,WeatherDisplay:10.37,2013-12-23 08:11:00,
2013-12-23 02:12:00,16.9,12.1,28.94,NW,315,4.6,4.6,81,0.00,CLR,,0.00,WeatherDisplay:10.37,2013-12-23 08:12:00,
2013-12-23 02:14:00,16.5,11.4,28.94,West,270,5.6,5.6,80,0.00,CLR,,0.00,WeatherDisplay:10.37,2013-12-23 08:14:00,
2013-12-23 02:16:00,16.5,11.4,28.94,WNW,292,5.8,5.8,80,0.00,CLR,,0.00,WeatherDisplay:10.37,2013-12-23 08:16:00,
2013-12-23 02:17:00,16.5,11.4,28.94,WNW,292,5.8,5.8,80,0.00,CLR,,0.00,WeatherDisplay:10.37,2013-12-23 08:17:00,
2013-12-23 02:19:00,16.3,11.3,28.94,NNW,338,5.8,5.8,80,0.00,CLR,,0.00,WeatherDisplay:10.37,2013-12-23 08:19:00,
2013-12-23 02:21:00,16.2,10.8,28.94,NW,315,5.8,5.8,79,0.00,CLR,,0.00,WeatherDisplay:10.37,2013-12-23 08:21:00,
2013-12-23 02:22:00,16.2,10.8,28.94,North,0,5.8,5.8,79,0.00,CLR,,0.00,WeatherDisplay:10.37,2013-12-23 08:22:00,
2013-12-23 02:23:00,16.2,10.8,28.94,NW,315,4.6,4.6,79,0.00,CLR,,0.00,WeatherDisplay:10.37,2013-12-23 08:23:00,
2013-12-23 02:25:00,16.0,10.6,28.97,NW,315,3.5,3.5,79,0.00,CLR,,0.00,WeatherDisplay:10.37,2013-12-23 08:25:00,
2013-12-23 02:27:00,15.8,10.7,28.97,NW,315,5.6,5.6,80,0.00,CLR,,0.00,WeatherDisplay:10.37,2013-12-23 08:27:00,
2013-12-23 02:28:00,15.8,10.7,28.97,WNW,292,4.7,4.7,80,0.00,CLR,,0.00,WeatherDisplay:10.37,2013-12-23 08:28:00,
2013-12-23 02:29:00,15.8,10.7,28.97,NW,315,5.8,5.8,80,0.00,CLR,,0.00,WeatherDisplay:10.37,2013-12-23 08:29:00,
2013-12-23 02:31:00,15.6,10.3,28.97,NW,315,4.6,4.6,79,0.00,CLR,,0.00,WeatherDisplay:10.37,2013-12-23 08:31:00,
2013-12-23 02:33:00,15.4,10.1,28.97,NW,315,4.6,4.6,79,0.00,CLR,,0.00,WeatherDisplay:10.37,2013-12-23 08:33:00,
2013-12-23 02:34:00,15.4,10.1,28.97,NW,315,3.5,3.5,79,0.00,CLR,,0.00,WeatherDisplay:10.37,2013-12-23 08:34:00,
2013-12-23 02:37:00,15.3,9.9,28.97,NW,315,2.4,2.4,79,0.00,CLR,,0.00,WeatherDisplay:10.37,2013-12-23 08:37:00,
2013-12-23 02:38:00,15.3,9.9,28.97,West,270,3.5,3.5,79,0.00,CLR,,0.00,WeatherDisplay:10.37,2013-12-23 08:38:00,
2013-12-23 02:39:00,15.3,9.9,28.97,WNW,292,5.9,5.9,79,0.00,CLR,,0.00,WeatherDisplay:10.37,2013-12-23 08:39:00,
2013-12-23 02:43:00,15.3,9.9,28.94,WNW,292,5.8,5.8,79,0.00,CLR,,0.00,WeatherDisplay:10.37,2013-12-23 08:43:00,
2013-12-23 02:44:00,15.1,9.7,28.94,WNW,292,4.9,4.9,79,0.00,CLR,,0.00,WeatherDisplay:10.37,2013-12-23 08:44:00,
2013-12-23 02:48:00,15.1,10.0,28.94,WNW,292,4.0,4.0,80,0.00,CLR,,0.00,WeatherDisplay:10.37,2013-12-23 08:48:00,
2013-12-23 02:49:00,15.1,10.0,28.94,West,270,4.0,4.0,80,0.00,CLR,,0.00,WeatherDisplay:10.37,2013-12-23 08:49:00,
2013-12-23 02:53:00,15.1,10.0,28.94,WNW,292,2.3,2.3,80,0.00,CLR,,0.00,WeatherDisplay:10.37,2013-12-23 08:53:00,
2013-12-23 02:54:00,15.1,10.0,28.94,West,270,3.5,3.5,80,0.00,CLR,,0.00,WeatherDisplay:10.37,2013-12-23 08:54:00,
2013-12-23 02:55:00,14.9,9.8,28.97,WNW,292,6.9,6.9,80,0.00,CLR,,0.00,WeatherDisplay:10.37,2013-12-23 08:55:00,
2013-12-23 02:58:00,14.9,9.8,28.97,WNW,292,3.5,3.5,80,0.00,CLR,,0.00,WeatherDisplay:10.37,2013-12-23 08:58:00,
2013-12-23 02:59:00,14.9,9.8,28.97,NW,315,3.5,3.5,80,0.00,CLR,,0.00,WeatherDisplay:10.37,2013-12-23 08:59:00,
2013-12-23 03:00:00,14.9,9.8,28.97,NW,315,2.3,2.6,80,0.00,CLR,,0.00,WeatherDisplay:10.37,2013-12-23 09:00:00,
2013-12-23 03:01:00,14.9,9.8,28.97,West,270,4.3,4.3,80,0.00,CLR,,0.00,WeatherDisplay:10.37,2013-12-23 09:01:00,
2013-12-23 03:04:00,14.7,9.7,28.97,NW,315,4.6,4.6,80,0.00,CLR,,0.00,WeatherDisplay:10.37,2013-12-23 09:04:00,
2013-12-23 03:05:00,14.7,9.7,28.97,NW,315,3.5,3.5,80,0.00,CLR,,0.00,WeatherDisplay:10.37,2013-12-23 09:05:00,
2013-12-23 03:07:00,14.7,9.7,28.97,WNW,292,2.4,2.4,80,0.00,CLR,,0.00,WeatherDisplay:10.37,2013-12-23 09:07:00,
2013-12-23 03:09:00,14.5,9.5,28.97,WNW,292,2.4,2.4,80,0.00,CLR,,0.00,WeatherDisplay:10.37,2013-12-23 09:09:00,
2013-12-23 03:10:00,14.5,9.5,28.97,WNW,292,3.6,3.6,80,0.00,CLR,,0.00,WeatherDisplay:10.37,2013-12-23 09:10:00,
2013-12-23 03:13:00,14.5,9.5,28.97,WNW,292,4.6,4.6,80,0.00,CLR,,0.00,WeatherDisplay:10.37,2013-12-23 09:13:00,
2013-12-23 03:14:00,14.5,9.8,28.97,NW,315,2.9,2.9,81,0.00,CLR,,0.00,WeatherDisplay:10.37,2013-12-23 09:14:00,
2013-12-23 03:15:00,14.5,9.8,28.97,WNW,292,2.4,2.6,81,0.00,CLR,,0.00,WeatherDisplay:10.37,2013-12-23 09:15:00,
2013-12-23 03:18:00,14.5,9.8,28.97,West,270,3.6,3.8,81,0.00,CLR,,0.00,WeatherDisplay:10.37,2013-12-23 09:18:00,
2013-12-23 03:19:00,14.4,9.6,28.97,NW,315,5.6,5.6,81,0.00,CLR,,0.00,WeatherDisplay:10.37,2013-12-23 09:19:00,
2013-12-23 03:20:00,14.4,9.6,28.97,West,270,6.0,6.0,81,0.00,CLR,,0.00,WeatherDisplay:10.37,2013-12-23 09:20:00,
2013-12-23 03:22:00,14.4,9.3,28.97,NNW,338,5.9,5.9,80,0.00,CLR,,0.00,WeatherDisplay:10.37,2013-12-23 09:22:00,
2013-12-23 03:24:00,14.4,9.3,28.97,WNW,292,5.4,5.4,80,0.00,CLR,,0.00,WeatherDisplay:10.37,2013-12-23 09:24:00,
2013-12-23 03:25:00,14.4,9.3,28.97,WNW,292,5.8,5.8,80,0.00,CLR,,0.00,WeatherDisplay:10.37,2013-12-23 09:25:00,
2013-12-23 03:26:00,14.2,9.1,28.97,WNW,292,5.8,5.8,80,0.00,CLR,,0.00,WeatherDisplay:10.37,2013-12-23 09:26:00,
2013-12-23 03:27:00,14.2,9.1,28.97,NW,315,4.6,4.6,80,0.00,CLR,,0.00,WeatherDisplay:10.37,2013-12-23 09:27:00,
2013-12-23 03:30:00,14.2,9.1,28.97,WNW,295,2.0,6.0,80,0.00,CLR,,0.00,WeatherDisplay:10.37,2013-12-23 09:30:00,
2013-12-23 03:31:00,14.2,9.1,28.97,West,270,5.9,5.9,80,0.00,CLR,,0.00,WeatherDisplay:10.37,2013-12-23 09:31:00,
2013-12-23 03:32:00,14.2,9.1,28.97,West,270,5.8,5.8,80,0.00,CLR,,0.00,WeatherDisplay:10.37,2013-12-23 09:32:00,
2013-12-23 03:33:00,14.2,9.1,28.97,West,270,9.2,9.2,80,0.00,CLR,,0.00,WeatherDisplay:10.37,2013-12-23 09:33:00,
2013-12-23 03:35:00,14.2,9.1,28.97,WNW,292,2.3,2.4,80,0.00,CLR,,0.00,WeatherDisplay:10.37,2013-12-23 09:35:00,
2013-12-23 03:36:00,14.2,9.1,28.97,WNW,292,3.1,3.1,80,0.00,CLR,,0.00,WeatherDisplay:10.37,2013-12-23 09:36:00,
2013-12-23 03:37:00,14.2,9.1,28.97,West,270,4.6,4.6,80,0.00,CLR,,0.00,WeatherDisplay:10.37,2013-12-23 09:37:00,
2013-12-23 03:38:00,14.2,9.1,28.97,West,270,3.5,3.5,80,0.00,CLR,,0.00,WeatherDisplay:10.37,2013-12-23 09:38:00,
2013-12-23 03:40:00,14.0,9.0,28.97,NW,315,5.8,5.8,80,0.00,CLR,,0.00,WeatherDisplay:10.37,2013-12-23 09:40:00,
2013-12-23 03:41:00,14.0,9.0,28.97,West,270,5.8,5.8,80,0.00,CLR,,0.00,WeatherDisplay:10.37,2013-12-23 09:41:00,
2013-12-23 03:42:00,13.8,8.8,28.97,WSW,248,5.8,5.8,80,0.00,CLR,,0.00,WeatherDisplay:10.37,2013-12-23 09:42:00,
2013-12-23 03:43:00,13.8,8.8,28.97,West,270,3.5,3.5,80,0.00,CLR,,0.00,WeatherDisplay:10.37,2013-12-23 09:43:00,
2013-12-23 03:45:00,13.8,8.8,28.97,West,270,4.6,4.6,80,0.00,CLR,,0.00,WeatherDisplay:10.37,2013-12-23 09:45:00,
2013-12-23 03:46:00,13.8,8.8,28.97,West,270,6.9,6.9,80,0.00,CLR,,0.00,WeatherDisplay:10.37,2013-12-23 09:46:00,
2013-12-23 03:47:00,13.6,8.6,28.97,NW,315,4.6,4.6,80,0.00,CLR,,0.00,WeatherDisplay:10.37,2013-12-23 09:47:00,
2013-12-23 03:48:00,13.6,8.6,28.97,West,270,5.4,5.4,80,0.00,CLR,,0.00,WeatherDisplay:10.37,2013-12-23 09:48:00,
2013-12-23 03:50:00,13.6,8.6,28.97,WNW,292,5.8,5.8,80,0.00,CLR,,0.00,WeatherDisplay:10.37,2013-12-23 09:50:00,
2013-12-23 03:51:00,13.5,8.4,28.97,NW,315,5.8,5.8,80,0.00,CLR,,0.00,WeatherDisplay:10.37,2013-12-23 09:51:00,
2013-12-23 03:52:00,13.5,8.4,28.97,West,270,5.8,5.8,80,0.00,CLR,,0.00,WeatherDisplay:10.37,2013-12-23 09:52:00,
2013-12-23 03:54:00,13.5,8.4,28.97,WNW,292,4.9,4.9,80,0.00,CLR,,0.00,WeatherDisplay:10.37,2013-12-23 09:54:00,
2013-12-23 03:56:00,13.5,8.4,28.94,WNW,292,4.6,4.6,80,0.00,CLR,,0.00,WeatherDisplay:10.37,2013-12-23 09:56:00,
2013-12-23 03:57:00,13.3,8.3,28.94,WNW,292,4.6,4.6,80,0.00,CLR,,0.00,WeatherDisplay:10.37,2013-12-23 09:57:00,
2013-12-23 03:58:00,13.3,8.3,28.94,WNW,292,4.9,4.9,80,0.00,CLR,,0.00,WeatherDisplay:10.37,2013-12-23 09:58:00,
2013-12-23 03:59:00,13.3,8.3,28.94,WNW,292,4.7,4.7,80,0.00,CLR,,0.00,WeatherDisplay:10.37,2013-12-23 09:59:00,
2013-12-23 04:01:00,13.3,8.3,28.94,WNW,292,3.8,3.8,80,0.00,CLR,,0.00,WeatherDisplay:10.37,2013-12-23 10:01:00,
2013-12-23 04:02:00,13.3,8.3,28.94,NW,315,3.5,3.5,80,0.00,CLR,,0.00,WeatherDisplay:10.37,2013-12-23 10:02:00,
2013-12-23 04:03:00,13.3,8.3,28.94,NW,315,2.3,2.3,80,0.00,CLR,,0.00,WeatherDisplay:10.37,2013-12-23 10:03:00,
2013-12-23 04:04:00,13.3,8.3,28.94,West,270,2.4,2.4,80,0.00,CLR,,0.00,WeatherDisplay:10.37,2013-12-23 10:04:00,
2013-12-23 04:06:00,13.1,8.1,28.94,NNW,338,4.6,4.6,80,0.00,CLR,,0.00,WeatherDisplay:10.37,2013-12-23 10:06:00,
2013-12-23 04:07:00,13.1,8.1,28.94,West,270,2.4,2.4,80,0.00,CLR,,0.00,WeatherDisplay:10.37,2013-12-23 10:07:00,
2013-12-23 04:08:00,12.9,7.9,28.94,WSW,248,2.6,2.6,80,0.00,CLR,,0.00,WeatherDisplay:10.37,2013-12-23 10:08:00,
2013-12-23 04:09:00,12.9,7.9,28.94,West,270,2.9,2.9,80,0.00,CLR,,0.00,WeatherDisplay:10.37,2013-12-23 10:09:00,
2013-12-23 04:11:00,12.9,7.9,28.97,West,270,8.1,8.1,80,0.00,CLR,,0.00,WeatherDisplay:10.37,2013-12-23 10:11:00,
2013-12-23 04:12:00,12.7,7.7,28.97,West,270,5.8,5.8,80,0.00,CLR,,0.00,WeatherDisplay:10.37,2013-12-23 10:12:00,
2013-12-23 04:13:00,12.7,7.7,28.97,West,270,2.9,2.9,80,0.00,CLR,,0.00,WeatherDisplay:10.37,2013-12-23 10:13:00,
2013-12-23 04:14:00,12.7,7.7,28.97,WNW,292,2.6,2.6,80,0.00,CLR,,0.00,WeatherDisplay:10.37,2013-12-23 10:14:00,
2013-12-23 04:16:00,12.6,7.6,28.97,WNW,292,5.8,5.8,80,0.00,CLR,,0.00,WeatherDisplay:10.37,2013-12-23 10:16:00,
2013-12-23 04:17:00,12.6,7.6,28.97,WNW,292,5.8,5.8,80,0.00,CLR,,0.00,WeatherDisplay:10.37,2013-12-23 10:17:00,
2013-12-23 04:18:00,12.4,7.4,28.97,WSW,248,4.6,4.6,80,0.00,CLR,,0.00,WeatherDisplay:10.37,2013-12-23 10:18:00,
2013-12-23 04:19:00,12.4,7.4,28.97,West,270,4.6,4.6,80,0.00,CLR,,0.00,WeatherDisplay:10.37,2013-12-23 10:19:00,
2013-12-23 04:21:00,12.2,7.2,28.97,West,270,4.7,4.7,80,0.00,CLR,,0.00,WeatherDisplay:10.37,2013-12-23 10:21:00,
2013-12-23 04:22:00,12.2,7.2,28.97,West,270,4.7,4.7,80,0.00,CLR,,0.00,WeatherDisplay:10.37,2013-12-23 10:22:00,
2013-12-23 04:23:00,12.0,7.0,28.97,WNW,292,4.6,4.6,80,0.00,CLR,,0.00,WeatherDisplay:10.37,2013-12-23 10:23:00,
2013-12-23 04:24:00,12.0,7.0,28.97,West,270,3.5,3.5,80,0.00,CLR,,0.00,WeatherDisplay:10.37,2013-12-23 10:24:00,
2013-12-23 04:25:00,12.0,7.0,28.97,West,270,3.5,3.5,80,0.00,CLR,,0.00,WeatherDisplay:10.37,2013-12-23 10:25:00,
2013-12-23 04:27:00,12.0,7.0,28.97,WNW,292,3.5,3.5,80,0.00,CLR,,0.00,WeatherDisplay:10.37,2013-12-23 10:27:00,
2013-12-23 04:28:00,11.8,6.9,28.97,WNW,292,4.6,4.6,80,0.00,CLR,,0.00,WeatherDisplay:10.37,2013-12-23 10:28:00,
2013-12-23 04:29:00,11.8,6.9,28.97,West,270,5.8,5.8,80,0.00,CLR,,0.00,WeatherDisplay:10.37,2013-12-23 10:29:00,
2013-12-23 04:30:00,11.8,6.9,28.97,NW,315,5.8,5.8,80,0.00,CLR,,0.00,WeatherDisplay:10.37,2013-12-23 10:30:00,
2013-12-23 04:32:00,11.7,6.7,28.97,WNW,292,5.8,5.8,80,0.00,CLR,,0.00,WeatherDisplay:10.37,2013-12-23 10:32:00,
2013-12-23 04:33:00,11.7,6.7,28.97,West,270,5.8,5.8,80,0.00,CLR,,0.00,WeatherDisplay:10.37,2013-12-23 10:33:00,
2013-12-23 04:34:00,11.7,6.7,28.97,West,270,4.6,4.6,80,0.00,CLR,,0.00,WeatherDisplay:10.37,2013-12-23 10:34:00,
2013-12-23 04:35:00,11.7,6.7,28.97,WSW,248,4.6,4.6,80,0.00,CLR,,0.00,WeatherDisplay:10.37,2013-12-23 10:35:00,
2013-12-23 04:36:00,11.7,6.7,28.97,WSW,248,5.8,5.8,80,0.00,CLR,,0.00,WeatherDisplay:10.37,2013-12-23 10:36:00,
2013-12-23 04:37:00,11.7,6.7,28.97,West,270,2.6,2.6,80,0.00,CLR,,0.00,WeatherDisplay:10.37,2013-12-23 10:37:00,
2013-12-23 04:38:00,11.7,6.7,28.97,WNW,292,4.6,4.6,80,0.00,CLR,,0.00,WeatherDisplay:10.37,2013-12-23 10:38:00,
2013-12-23 04:39:00,11.5,6.5,29.00,West,270,4.6,4.6,80,0.00,CLR,,0.00,WeatherDisplay:10.37,2013-12-23 10:39:00,
2013-12-23 04:40:00,11.5,6.5,29.00,NW,315,3.5,3.5,80,0.00,CLR,,0.00,WeatherDisplay:10.37,2013-12-23 10:40:00,
2013-12-23 04:41:00,11.3,6.3,29.00,NW,315,4.6,4.6,80,0.00,CLR,,0.00,WeatherDisplay:10.37,2013-12-23 10:41:00,
2013-12-23 04:42:00,11.3,6.3,29.00,NW,315,4.6,4.6,80,0.00,CLR,,0.00,WeatherDisplay:10.37,2013-12-23 10:42:00,
2013-12-23 04:43:00,11.3,6.3,29.00,WNW,292,2.3,2.3,80,0.00,CLR,,0.00,WeatherDisplay:10.37,2013-12-23 10:43:00,
2013-12-23 04:44:00,11.3,6.3,29.00,WNW,292,5.8,5.8,80,0.00,CLR,,0.00,WeatherDisplay:10.37,2013-12-23 10:44:00,
2013-12-23 04:46:00,11.1,6.2,29.00,SW,225,8.1,8.1,80,0.00,CLR,,0.00,WeatherDisplay:10.37,2013-12-23 10:46:00,
2013-12-23 04:47:00,11.1,6.2,29.00,West,270,8.1,8.1,80,0.00,CLR,,0.00,WeatherDisplay:10.37,2013-12-23 10:47:00,
2013-12-23 04:48:00,11.1,6.2,29.00,WNW,292,3.5,3.5,80,0.00,CLR,,0.00,WeatherDisplay:10.37,2013-12-23 10:48:00,
2013-12-23 04:49:00,11.1,6.2,29.00,West,270,3.5,3.5,80,0.00,CLR,,0.00,WeatherDisplay:10.37,2013-12-23 10:49:00,
2013-12-23 04:51:00,11.1,6.2,29.00,West,270,5.8,5.8,80,0.00,CLR,,0.00,WeatherDisplay:10.37,2013-12-23 10:51:00,
2013-12-23 04:52:00,11.1,6.2,29.00,West,270,5.9,5.9,80,0.00,CLR,,0.00,WeatherDisplay:10.37,2013-12-23 10:52:00,
2013-12-23 04:53:00,10.9,6.0,29.00,SSW,202,5.8,5.8,80,0.00,CLR,,0.00,WeatherDisplay:10.37,2013-12-23 10:53:00,
2013-12-23 04:55:00,10.9,6.0,29.00,WNW,292,3.5,3.5,80,0.00,CLR,,0.00,WeatherDisplay:10.37,2013-12-23 10:55:00,
2013-12-23 04:57:00,10.9,6.0,29.00,West,270,4.6,4.6,80,0.00,CLR,,0.00,WeatherDisplay:10.37,2013-12-23 10:57:00,
2013-12-23 04:58:00,10.8,5.8,29.00,West,270,8.1,8.1,80,0.00,CLR,,0.00,WeatherDisplay:10.37,2013-12-23 10:58:00,
2013-12-23 05:00:00,10.8,5.8,29.00,NW,315,5.8,5.8,80,0.00,CLR,,0.00,WeatherDisplay:10.37,2013-12-23 11:00:00,
2013-12-23 05:02:00,10.6,5.6,29.00,WSW,248,5.8,5.8,80,0.00,CLR,,0.00,WeatherDisplay:10.37,2013-12-23 11:02:00,
2013-12-23 05:03:00,10.4,5.5,29.00,NW,315,5.8,5.8,80,0.00,CLR,,0.00,WeatherDisplay:10.37,2013-12-23 11:03:00,
2013-12-23 05:04:00,10.4,5.5,29.00,WNW,292,6.9,6.9,80,0.00,CLR,,0.00,WeatherDisplay:10.37,2013-12-23 11:04:00,
2013-12-23 05:05:00,10.4,5.5,29.00,WNW,292,7.4,7.4,80,0.00,CLR,,0.00,WeatherDisplay:10.37,2013-12-23 11:05:00,
2013-12-23 05:07:00,10.2,5.3,29.00,West,270,5.8,5.8,80,0.00,CLR,,0.00,WeatherDisplay:10.37,2013-12-23 11:07:00,
2013-12-23 05:08:00,10.2,5.3,29.00,WNW,292,4.6,4.6,80,0.00,CLR,,0.00,WeatherDisplay:10.37,2013-12-23 11:08:00,
2013-12-23 05:09:00,10.2,5.3,29.00,West,270,4.7,4.7,80,0.00,CLR,,0.00,WeatherDisplay:10.37,2013-12-23 11:09:00,
2013-12-23 05:10:00,10.2,5.3,29.00,WNW,292,4.9,4.9,80,0.00,CLR,,0.00,WeatherDisplay:10.37,2013-12-23 11:10:00,
2013-12-23 05:12:00,10.2,5.3,29.00,West,270,3.5,3.5,80,0.00,CLR,,0.00,WeatherDisplay:10.37,2013-12-23 11:12:00,
2013-12-23 05:13:00,10.2,5.3,29.00,NW,315,2.4,2.4,80,0.00,CLR,,0.00,WeatherDisplay:10.37,2013-12-23 11:13:00,
2013-12-23 05:14:00,10.0,5.1,29.00,NW,315,2.9,2.9,80,0.00,CLR,,0.00,WeatherDisplay:10.37,2013-12-23 11:14:00,
2013-12-23 05:15:00,10.0,5.1,29.00,WNW,292,3.3,3.3,80,0.00,CLR,,0.00,WeatherDisplay:10.37,2013-12-23 11:15:00,
2013-12-23 05:18:00,10.0,5.1,29.00,West,270,3.6,3.6,80,0.00,CLR,,0.00,WeatherDisplay:10.37,2013-12-23 11:18:00,
2013-12-23 05:19:00,10.0,5.1,29.00,West,270,3.5,3.5,80,0.00,CLR,,0.00,WeatherDisplay:10.37,2013-12-23 11:19:00,
2013-12-23 05:21:00,10.0,5.1,29.00,SSW,202,2.6,2.6,80,0.00,CLR,,0.00,WeatherDisplay:10.37,2013-12-23 11:21:00,
2013-12-23 05:24:00,9.9,4.9,29.00,West,270,2.3,2.6,80,0.00,CLR,,0.00,WeatherDisplay:10.37,2013-12-23 11:24:00,
2013-12-23 05:27:00,9.7,4.7,29.00,NNW,338,3.5,3.5,80,0.00,CLR,,0.00,WeatherDisplay:10.37,2013-12-23 11:27:00,
2013-12-23 05:29:00,9.7,4.7,29.00,WNW,292,5.8,5.8,80,0.00,CLR,,0.00,WeatherDisplay:10.37,2013-12-23 11:29:00,
2013-12-23 05:30:00,9.5,4.6,29.00,West,270,5.6,5.6,80,0.00,CLR,,0.00,WeatherDisplay:10.37,2013-12-23 11:30:00,
2013-12-23 05:32:00,9.5,4.6,29.00,WNW,292,6.9,6.9,80,0.00,CLR,,0.00,WeatherDisplay:10.37,2013-12-23 11:32:00,
2013-12-23 05:34:00,9.1,4.2,29.00,West,270,9.2,9.2,80,0.00,CLR,,0.00,WeatherDisplay:10.37,2013-12-23 11:34:00,
2013-12-23 05:35:00,9.1,4.2,29.00,WNW,292,9.2,9.2,80,0.00,CLR,,0.00,WeatherDisplay:10.37,2013-12-23 11:35:00,
2013-12-23 05:37:00,9.1,4.2,29.00,NW,315,5.8,5.8,80,0.00,CLR,,0.00,WeatherDisplay:10.37,2013-12-23 11:37:00,
2013-12-23 05:39:00,9.0,4.0,29.00,WNW,292,3.5,3.5,80,0.00,CLR,,0.00,WeatherDisplay:10.37,2013-12-23 11:39:00,
2013-12-23 05:40:00,9.0,4.0,29.00,West,270,3.5,3.5,80,0.00,CLR,,0.00,WeatherDisplay:10.37,2013-12-23 11:40:00,
2013-12-23 05:41:00,9.0,4.0,29.00,WNW,292,4.6,4.6,80,0.00,CLR,,0.00,WeatherDisplay:10.37,2013-12-23 11:41:00,
2013-12-23 05:42:00,8.8,3.9,29.00,West,270,3.5,3.5,80,0.00,CLR,,0.00,WeatherDisplay:10.37,2013-12-23 11:42:00,
2013-12-23 05:44:00,8.8,3.9,29.00,West,270,6.9,6.9,80,0.00,CLR,,0.00,WeatherDisplay:10.37,2013-12-23 11:44:00,
2013-12-23 05:45:00,8.8,3.9,29.00,WNW,292,8.7,8.7,80,0.00,CLR,,0.00,WeatherDisplay:10.37,2013-12-23 11:45:00,
2013-12-23 05:46:00,8.6,3.7,29.00,WNW,292,9.2,9.2,80,0.00,CLR,,0.00,WeatherDisplay:10.37,2013-12-23 11:46:00,
2013-12-23 05:47:00,8.6,3.7,29.00,WNW,292,4.6,4.6,80,0.00,CLR,,0.00,WeatherDisplay:10.37,2013-12-23 11:47:00,
2013-12-23 05:49:00,8.6,3.7,29.00,West,270,8.1,8.1,80,0.00,CLR,,0.00,WeatherDisplay:10.37,2013-12-23 11:49:00,
2013-12-23 05:50:00,8.6,3.7,29.00,NW,315,7.4,7.4,80,0.00,CLR,,0.00,WeatherDisplay:10.37,2013-12-23 11:50:00,
2013-12-23 05:51:00,8.6,3.7,29.00,WNW,292,6.9,6.9,80,0.00,CLR,,0.00,WeatherDisplay:10.37,2013-12-23 11:51:00,
2013-12-23 05:52:00,8.4,3.5,29.00,WNW,292,5.8,5.8,80,0.00,CLR,,0.00,WeatherDisplay:10.37,2013-12-23 11:52:00,
2013-12-23 05:55:00,8.4,3.5,29.00,WNW,292,8.1,8.1,80,0.00,CLR,,0.00,WeatherDisplay:10.37,2013-12-23 11:55:00,
2013-12-23 05:56:00,8.2,3.3,29.00,West,270,8.1,8.1,80,0.00,CLR,,0.00,WeatherDisplay:10.37,2013-12-23 11:56:00,
2013-12-23 05:58:00,8.2,3.3,29.00,WNW,292,5.8,5.8,80,0.00,CLR,,0.00,WeatherDisplay:10.37,2013-12-23 11:58:00,
2013-12-23 06:00:00,8.2,3.3,29.00,West,270,4.6,4.6,80,0.00,CLR,,0.00,WeatherDisplay:10.37,2013-12-23 12:00:00,
2013-12-23 06:01:00,8.2,3.3,29.00,NNW,338,2.3,2.3,80,0.00,CLR,,0.00,WeatherDisplay:10.37,2013-12-23 12:01:00,
2013-12-23 06:03:00,8.2,3.3,29.00,WNW,292,4.6,4.6,80,0.00,CLR,,0.00,WeatherDisplay:10.37,2013-12-23 12:03:00,
2013-12-23 06:05:00,8.1,3.2,29.00,WNW,292,6.7,6.7,80,0.00,CLR,,0.00,WeatherDisplay:10.37,2013-12-23 12:05:00,
2013-12-23 06:06:00,8.1,3.2,29.00,WSW,248,7.6,7.6,80,0.00,CLR,,0.00,WeatherDisplay:10.37,2013-12-23 12:06:00,
2013-12-23 06:07:00,8.1,3.2,29.00,WNW,292,8.1,8.1,80,0.00,CLR,,0.00,WeatherDisplay:10.37,2013-12-23 12:07:00,
2013-12-23 06:09:00,7.9,3.0,29.00,NW,315,5.8,5.8,80,0.00,CLR,,0.00,WeatherDisplay:10.37,2013-12-23 12:09:00,
2013-12-23 06:10:00,7.9,3.0,29.03,West,270,6.9,6.9,80,0.00,CLR,,0.00,WeatherDisplay:10.37,2013-12-23 12:10:00,
2013-12-23 06:11:00,7.9,3.0,29.03,WNW,292,6.9,6.9,80,0.00,CLR,,0.00,WeatherDisplay:10.37,2013-12-23 12:11:00,
2013-12-23 06:12:00,7.9,3.0,29.03,WNW,292,4.6,4.6,80,0.00,CLR,,0.00,WeatherDisplay:10.37,2013-12-23 12:12:00,
2013-12-23 06:14:00,7.9,3.0,29.03,WSW,248,6.0,6.0,80,0.00,CLR,,0.00,WeatherDisplay:10.37,2013-12-23 12:14:00,
2013-12-23 06:15:00,7.9,3.0,29.03,WNW,292,5.8,5.8,80,0.00,CLR,,0.00,WeatherDisplay:10.37,2013-12-23 12:15:00,
2013-12-23 06:16:00,7.9,3.0,29.03,WNW,292,4.6,4.6,80,0.00,CLR,,0.00,WeatherDisplay:10.37,2013-12-23 12:16:00,
2013-12-23 06:17:00,7.9,3.0,29.03,WSW,248,4.6,4.6,80,0.00,CLR,,0.00,WeatherDisplay:10.37,2013-12-23 12:17:00,
2013-12-23 06:18:00,7.9,3.0,29.03,West,270,3.5,3.5,80,0.00,CLR,,0.00,WeatherDisplay:10.37,2013-12-23 12:18:00,
2013-12-23 06:19:00,7.9,3.0,29.03,WNW,292,3.6,3.6,80,0.00,CLR,,0.00,WeatherDisplay:10.37,2013-12-23 12:19:00,
2013-12-23 06:20:00,7.9,3.0,29.03,WNW,292,3.8,3.8,80,0.00,CLR,,0.00,WeatherDisplay:10.37,2013-12-23 12:20:00,
2013-12-23 06:21:00,7.9,3.0,29.03,WNW,292,3.5,3.5,80,0.00,CLR,,0.00,WeatherDisplay:10.37,2013-12-23 12:21:00,
2013-12-23 06:22:00,7.9,3.0,29.03,NNW,338,4.6,4.6,80,0.00,CLR,,0.00,WeatherDisplay:10.37,2013-12-23 12:22:00,
2013-12-23 06:23:00,7.9,3.0,29.03,West,270,2.3,2.3,80,0.00,CLR,,0.00,WeatherDisplay:10.37,2013-12-23 12:23:00,
2013-12-23 06:24:00,7.9,3.0,29.03,WNW,292,2.3,2.3,80,0.00,CLR,,0.00,WeatherDisplay:10.37,2013-12-23 12:24:00,
2013-12-23 06:26:00,7.9,3.0,29.03,NW,315,5.8,5.8,80,0.00,CLR,,0.00,WeatherDisplay:10.37,2013-12-23 12:26:00,
2013-12-23 06:27:00,7.7,2.8,29.03,WNW,292,5.8,5.8,80,0.00,CLR,,0.00,WeatherDisplay:10.37,2013-12-23 12:27:00,
2013-12-23 06:29:00,7.7,2.8,29.03,WNW,292,5.4,5.4,80,0.00,CLR,,0.00,WeatherDisplay:10.37,2013-12-23 12:29:00,
2013-12-23 06:31:00,7.7,2.8,29.03,WNW,292,5.8,5.8,80,0.00,CLR,,0.00,WeatherDisplay:10.37,2013-12-23 12:31:00,
2013-12-23 06:33:00,7.7,2.8,29.03,WNW,292,4.6,4.6,80,0.00,CLR,,0.00,WeatherDisplay:10.37,2013-12-23 12:33:00,
2013-12-23 06:34:00,7.7,2.8,29.03,WNW,292,5.8,5.8,80,0.00,CLR,,0.00,WeatherDisplay:10.37,2013-12-23 12:34:00,
2013-12-23 06:35:00,7.5,2.6,29.03,WNW,292,5.8,5.8,80,0.00,CLR,,0.00,WeatherDisplay:10.37,2013-12-23 12:35:00,
2013-12-23 06:36:00,7.5,2.6,29.03,West,270,3.6,3.6,80,0.00,CLR,,0.00,WeatherDisplay:10.37,2013-12-23 12:36:00,
2013-12-23 06:39:00,7.5,2.6,29.03,NW,315,4.6,4.6,80,0.00,CLR,,0.00,WeatherDisplay:10.37,2013-12-23 12:39:00,
2013-12-23 06:40:00,7.5,2.6,29.00,West,270,3.5,3.5,80,0.00,CLR,,0.00,WeatherDisplay:10.37,2013-12-23 12:40:00,
2013-12-23 06:41:00,7.5,2.6,29.00,NW,315,3.1,3.1,80,0.00,CLR,,0.00,WeatherDisplay:10.37,2013-12-23 12:41:00,
2013-12-23 06:44:00,7.5,2.6,29.00,West,270,5.8,5.8,80,0.00,CLR,,0.00,WeatherDisplay:10.37,2013-12-23 12:44:00,
2013-12-23 06:45:00,7.3,2.5,29.00,NNW,338,5.8,5.8,80,0.00,CLR,,0.00,WeatherDisplay:10.37,2013-12-23 12:45:00,
2013-12-23 06:46:00,7.3,2.5,29.00,NW,315,5.4,5.4,80,0.00,CLR,,0.00,WeatherDisplay:10.37,2013-12-23 12:46:00,
2013-12-23 06:49:00,7.2,2.3,29.00,West,270,5.8,5.8,80,0.00,CLR,,0.00,WeatherDisplay:10.37,2013-12-23 12:49:00,
2013-12-23 06:50:00,7.3,2.5,29.00,West,270,4.6,4.6,80,0.00,CLR,,0.00,WeatherDisplay:10.37,2013-12-23 12:50:00,
2013-12-23 06:51:00,7.2,2.3,29.00,WNW,292,4.7,4.7,80,0.00,CLR,,0.00,WeatherDisplay:10.37,2013-12-23 12:51:00,
2013-12-23 06:52:00,7.2,2.3,29.00,WSW,248,4.6,4.6,80,0.00,CLR,,0.00,WeatherDisplay:10.37,2013-12-23 12:52:00,
2013-12-23 06:55:00,7.2,2.3,29.03,West,270,4.6,4.6,80,0.00,CLR,,0.00,WeatherDisplay:10.37,2013-12-23 12:55:00,
2013-12-23 06:56:00,7.2,2.3,29.03,WSW,248,4.6,4.6,80,0.00,CLR,,0.00,WeatherDisplay:10.37,2013-12-23 12:56:00,
2013-12-23 06:57:00,7.2,2.3,29.03,WSW,248,3.8,3.8,80,0.00,CLR,,0.00,WeatherDisplay:10.37,2013-12-23 12:57:00,
2013-12-23 07:01:00,7.2,2.3,29.03,West,270,8.1,8.1,80,0.00,CLR,,0.00,WeatherDisplay:10.37,2013-12-23 13:01:00,
2013-12-23 07:02:00,7.2,2.3,29.03,West,270,8.1,8.1,80,0.00,CLR,,0.00,WeatherDisplay:10.37,2013-12-23 13:02:00,
2013-12-23 07:06:00,7.0,2.1,29.03,NW,315,5.8,5.8,80,0.00,CLR,,0.00,WeatherDisplay:10.37,2013-12-23 13:06:00,
2013-12-23 07:07:00,7.0,2.1,29.03,WNW,292,5.8,5.8,80,0.00,CLR,,0.00,WeatherDisplay:10.37,2013-12-23 13:07:00,
2013-12-23 07:08:00,7.0,2.1,29.03,WNW,292,4.6,4.6,80,0.00,CLR,,0.00,WeatherDisplay:10.37,2013-12-23 13:08:00,
2013-12-23 07:11:00,7.0,2.1,29.03,WNW,292,6.4,6.4,80,0.00,CLR,,0.00,WeatherDisplay:10.37,2013-12-23 13:11:00,
2013-12-23 07:12:00,7.0,2.1,29.03,NW,315,5.8,5.9,80,0.00,CLR,,0.00,WeatherDisplay:10.37,2013-12-23 13:12:00,
2013-12-23 07:13:00,7.0,2.1,29.03,West,270,5.8,5.8,80,0.00,CLR,,0.00,WeatherDisplay:10.37,2013-12-23 13:13:00,
2013-12-23 07:17:00,7.0,2.1,29.03,WNW,292,5.8,5.8,80,0.00,CLR,,0.00,WeatherDisplay:10.37,2013-12-23 13:17:00,
2013-12-23 07:19:00,7.0,2.1,29.03,WSW,248,4.6,4.6,80,0.00,CLR,,0.00,WeatherDisplay:10.37,2013-12-23 13:19:00,
2013-12-23 07:22:00,7.0,2.1,29.03,NW,315,3.5,3.5,80,0.00,CLR,,0.00,WeatherDisplay:10.37,2013-12-23 13:22:00,
2013-12-23 07:23:00,7.0,2.1,29.03,WSW,248,3.5,3.5,80,0.00,CLR,,0.00,WeatherDisplay:10.37,2013-12-23 13:23:00,
2013-12-23 07:24:00,7.0,2.1,29.03,NW,315,2.6,2.6,80,0.00,CLR,,0.00,WeatherDisplay:10.37,2013-12-23 13:24:00,
2013-12-23 07:27:00,7.0,2.1,29.03,West,270,5.8,5.8,80,0.00,CLR,,0.00,WeatherDisplay:10.37,2013-12-23 13:27:00,
2013-12-23 07:28:00,6.8,1.9,29.03,North,0,4.6,4.6,80,0.00,CLR,,0.00,WeatherDisplay:10.37,2013-12-23 13:28:00,
2013-12-23 07:29:00,6.8,1.9,29.03,WNW,292,4.6,4.6,80,0.00,CLR,,0.00,WeatherDisplay:10.37,2013-12-23 13:29:00,
2013-12-23 07:33:00,6.8,1.9,29.03,West,270,4.6,4.6,80,0.00,CLR,,0.00,WeatherDisplay:10.37,2013-12-23 13:33:00,
2013-12-23 07:34:00,6.8,1.9,29.03,WNW,292,4.6,4.6,80,0.00,CLR,,0.00,WeatherDisplay:10.37,2013-12-23 13:34:00,
2013-12-23 07:35:00,6.8,1.9,29.03,West,270,5.4,5.4,80,0.00,CLR,,0.00,WeatherDisplay:10.37,2013-12-23 13:35:00,
2013-12-23 07:38:00,6.8,1.9,29.03,WNW,292,3.5,3.5,80,0.00,CLR,,0.00,WeatherDisplay:10.37,2013-12-23 13:38:00,
2013-12-23 07:39:00,6.8,1.9,29.03,WNW,292,4.6,4.6,80,0.00,CLR,,0.00,WeatherDisplay:10.37,2013-12-23 13:39:00,
2013-12-23 07:40:00,6.8,1.9,29.03,WNW,292,4.6,4.6,80,0.00,CLR,,0.00,WeatherDisplay:10.37,2013-12-23 13:40:00,
2013-12-23 07:43:00,6.8,1.9,29.03,NW,315,3.5,3.5,80,0.00,CLR,,0.00,WeatherDisplay:10.37,2013-12-23 13:43:00,
2013-12-23 07:45:00,7.0,2.1,29.03,WSW,248,2.3,2.3,80,0.00,CLR,,0.00,WeatherDisplay:10.37,2013-12-23 13:45:00,
2013-12-23 07:48:00,7.0,2.1,29.03,NNW,338,4.3,4.3,80,0.00,CLR,,0.00,WeatherDisplay:10.37,2013-12-23 13:48:00,
2013-12-23 07:49:00,7.0,2.1,29.03,West,270,5.8,5.8,80,0.00,CLR,,0.00,WeatherDisplay:10.37,2013-12-23 13:49:00,
2013-12-23 07:50:00,7.0,2.1,29.03,NW,315,3.5,3.5,80,0.00,CLR,,0.00,WeatherDisplay:10.37,2013-12-23 13:50:00,
2013-12-23 07:51:00,7.0,2.1,29.03,West,270,3.5,3.5,80,0.00,CLR,,0.00,WeatherDisplay:10.37,2013-12-23 13:51:00,
2013-12-23 07:53:00,7.0,2.1,29.03,WSW,248,3.5,3.5,80,0.00,CLR,,0.00,WeatherDisplay:10.37,2013-12-23 13:53:00,
2013-12-23 07:54:00,7.0,2.1,29.06,WSW,248,5.4,5.4,80,0.00,CLR,,0.00,WeatherDisplay:10.37,2013-12-23 13:54:00,
2013-12-23 07:55:00,7.0,2.1,29.06,WNW,292,5.8,5.8,80,0.00,CLR,,0.00,WeatherDisplay:10.37,2013-12-23 13:55:00,
2013-12-23 07:56:00,7.0,2.1,29.06,WNW,292,5.8,5.8,80,0.00,CLR,,0.00,WeatherDisplay:10.37,2013-12-23 13:56:00,
2013-12-23 07:58:00,7.0,2.1,29.06,WNW,292,5.8,5.8,80,0.00,CLR,,0.00,WeatherDisplay:10.37,2013-12-23 13:58:00,
2013-12-23 08:00:00,7.0,2.1,29.06,WNW,292,4.0,4.0,80,0.00,CLR,,0.00,WeatherDisplay:10.37,2013-12-23 14:00:00,
2013-12-23 08:01:00,7.0,2.1,29.06,SSW,202,4.6,4.6,80,0.00,CLR,,0.00,WeatherDisplay:10.37,2013-12-23 14:01:00,
2013-12-23 08:03:00,7.0,2.1,29.06,WNW,292,5.8,5.8,80,0.00,CLR,,0.00,WeatherDisplay:10.37,2013-12-23 14:03:00,
2013-12-23 08:04:00,7.0,2.1,29.06,WNW,292,5.8,5.8,80,0.00,CLR,,0.00,WeatherDisplay:10.37,2013-12-23 14:04:00,
2013-12-23 08:05:00,7.0,2.1,29.06,WNW,292,4.0,4.0,80,0.00,CLR,,0.00,WeatherDisplay:10.37,2013-12-23 14:05:00,
2013-12-23 08:06:00,7.0,2.1,29.06,WNW,292,4.6,4.6,80,0.00,CLR,,0.00,WeatherDisplay:10.37,2013-12-23 14:06:00,
2013-12-23 08:09:00,7.2,2.3,29.06,WNW,292,4.6,4.6,80,0.00,CLR,,0.00,WeatherDisplay:10.37,2013-12-23 14:09:00,
2013-12-23 08:11:00,7.0,2.1,29.06,WNW,292,6.9,6.9,80,0.00,CLR,,0.00,WeatherDisplay:10.37,2013-12-23 14:11:00,
2013-12-23 08:12:00,7.0,2.1,29.06,WNW,292,6.9,6.9,80,0.00,CLR,,0.00,WeatherDisplay:10.37,2013-12-23 14:12:00,
2013-12-23 08:14:00,7.2,2.3,29.06,NW,315,5.8,5.8,80,0.00,CLR,,0.00,WeatherDisplay:10.37,2013-12-23 14:14:00,
2013-12-23 08:16:00,7.2,2.3,29.06,West,270,3.5,3.5,80,0.00,CLR,,0.00,WeatherDisplay:10.37,2013-12-23 14:16:00,
2013-12-23 08:17:00,7.3,2.5,29.06,WNW,292,3.5,3.5,80,0.00,CLR,,0.00,WeatherDisplay:10.37,2013-12-23 14:17:00,
2013-12-23 08:19:00,7.5,2.6,29.06,West,270,3.8,3.8,80,0.00,CLR,,0.00,WeatherDisplay:10.37,2013-12-23 14:19:00,
2013-12-23 08:22:00,7.5,2.6,29.06,West,270,5.4,5.4,80,0.00,CLR,,0.00,WeatherDisplay:10.37,2013-12-23 14:22:00,
2013-12-23 08:24:00,7.5,2.6,29.06,WNW,292,6.9,6.9,80,0.00,CLR,,0.00,WeatherDisplay:10.37,2013-12-23 14:24:00,
2013-12-23 08:27:00,7.7,2.8,29.06,WNW,292,2.3,2.3,80,0.00,CLR,,0.00,WeatherDisplay:10.37,2013-12-23 14:27:00,
2013-12-23 08:28:00,7.7,2.8,29.06,NW,315,2.3,2.3,80,0.00,CLR,,0.00,WeatherDisplay:10.37,2013-12-23 14:28:00,
2013-12-23 08:29:00,7.9,3.0,29.06,WNW,292,2.3,2.3,80,0.00,CLR,,0.00,WeatherDisplay:10.37,2013-12-23 14:29:00,
2013-12-23 08:33:00,7.9,3.0,29.06,WNW,292,5.8,5.8,80,0.00,CLR,,0.00,WeatherDisplay:10.37,2013-12-23 14:33:00,
2013-12-23 08:34:00,7.9,3.0,29.06,West,270,4.6,4.6,80,0.00,CLR,,0.00,WeatherDisplay:10.37,2013-12-23 14:34:00,
2013-12-23 08:38:00,7.9,3.0,29.06,West,270,5.8,5.8,80,0.00,CLR,,0.00,WeatherDisplay:10.37,2013-12-23 14:38:00,
2013-12-23 08:39:00,7.9,3.0,29.06,WSW,248,4.6,4.6,80,0.00,CLR,,0.00,WeatherDisplay:10.37,2013-12-23 14:39:00,
2013-12-23 08:40:00,7.9,3.0,29.09,NW,315,6.0,6.0,80,0.00,CLR,,0.00,WeatherDisplay:10.37,2013-12-23 14:40:00,
2013-12-23 08:43:00,7.9,3.0,29.09,West,270,5.9,5.9,80,0.00,CLR,,0.00,WeatherDisplay:10.37,2013-12-23 14:43:00,
2013-12-23 08:44:00,7.9,3.0,29.09,NW,315,5.8,5.8,80,0.00,CLR,,0.00,WeatherDisplay:10.37,2013-12-23 14:44:00,
2013-12-23 08:45:00,7.9,3.0,29.09,NNW,338,5.8,5.8,80,0.00,CLR,,0.00,WeatherDisplay:10.37,2013-12-23 14:45:00,
2013-12-23 08:48:00,7.7,2.8,29.09,West,270,9.2,9.2,80,0.00,CLR,,0.00,WeatherDisplay:10.37,2013-12-23 14:48:00,
2013-12-23 08:49:00,7.7,2.8,29.09,NW,315,4.6,4.6,80,0.00,CLR,,0.00,WeatherDisplay:10.37,2013-12-23 14:49:00,
2013-12-23 08:50:00,7.7,2.8,29.09,NNW,338,5.8,5.8,80,0.00,CLR,,0.00,WeatherDisplay:10.37,2013-12-23 14:50:00,
2013-12-23 08:53:00,8.1,3.2,29.09,NW,315,5.8,5.8,80,0.00,CLR,,0.00,WeatherDisplay:10.37,2013-12-23 14:53:00,
2013-12-23 08:54:00,8.1,3.2,29.06,WNW,292,4.7,4.7,80,0.00,CLR,,0.00,WeatherDisplay:10.37,2013-12-23 14:54:00,
2013-12-23 08:55:00,7.9,3.0,29.06,WNW,292,5.6,5.6,80,0.00,CLR,,0.00,WeatherDisplay:10.37,2013-12-23 14:55:00,
2013-12-23 08:56:00,7.9,3.0,29.06,WNW,292,5.4,5.4,80,0.00,CLR,,0.00,WeatherDisplay:10.37,2013-12-23 14:56:00,
2013-12-23 08:59:00,8.1,3.2,29.06,NW,315,5.8,5.8,80,0.00,CLR,,0.00,WeatherDisplay:10.37,2013-12-23 14:59:00,
2013-12-23 09:01:00,8.1,3.2,29.06,WNW,292,5.8,5.8,80,0.00,CLR,,0.00,WeatherDisplay:10.37,2013-12-23 15:01:00,
2013-12-23 09:02:00,8.2,3.3,29.06,NNW,338,4.6,4.6,80,0.00,CLR,,0.00,WeatherDisplay:10.37,2013-12-23 15:02:00,
2013-12-23 09:04:00,8.4,3.5,29.06,WNW,292,4.6,4.6,80,0.00,CLR,,0.00,WeatherDisplay:10.37,2013-12-23 15:04:00,
2013-12-23 09:06:00,8.4,3.5,29.06,NW,315,5.9,5.9,80,0.00,CLR,,0.00,WeatherDisplay:10.37,2013-12-23 15:06:00,
2013-12-23 09:07:00,8.4,3.5,29.06,West,270,7.1,7.1,80,0.00,CLR,,0.00,WeatherDisplay:10.37,2013-12-23 15:07:00,
2013-12-23 09:09:00,7.9,3.0,29.09,West,270,8.1,8.1,80,0.00,CLR,,0.00,WeatherDisplay:10.37,2013-12-23 15:09:00,
2013-12-23 09:12:00,7.9,3.0,29.09,WNW,292,8.1,8.1,80,0.00,CLR,,0.00,WeatherDisplay:10.37,2013-12-23 15:12:00,
2013-12-23 09:13:00,7.9,3.0,29.09,WNW,292,8.1,8.1,80,0.00,CLR,,0.00,WeatherDisplay:10.37,2013-12-23 15:13:00,
2013-12-23 09:14:00,7.7,2.8,29.09,West,270,6.9,6.9,80,0.00,CLR,,0.00,WeatherDisplay:10.37,2013-12-23 15:14:00,
2013-12-23 09:17:00,7.9,3.0,29.09,NNW,338,3.5,3.5,80,0.00,CLR,,0.00,WeatherDisplay:10.37,2013-12-23 15:17:00,
2013-12-23 09:18:00,7.9,3.0,29.09,WNW,292,5.8,5.8,80,0.00,CLR,,0.00,WeatherDisplay:10.37,2013-12-23 15:18:00,
2013-12-23 09:19:00,7.9,3.0,29.09,WSW,248,9.2,9.2,80,0.00,CLR,,0.00,WeatherDisplay:10.37,2013-12-23 15:19:00,
2013-12-23 09:20:00,7.9,3.0,29.09,WSW,248,9.2,9.2,80,0.00,CLR,,0.00,WeatherDisplay:10.37,2013-12-23 15:20:00,
2013-12-23 09:22:00,7.7,2.8,29.09,WNW,292,9.2,9.2,80,0.00,CLR,,0.00,WeatherDisplay:10.37,2013-12-23 15:22:00,
2013-12-23 09:23:00,7.7,2.8,29.09,NW,315,9.2,9.2,80,0.00,CLR,,0.00,WeatherDisplay:10.37,2013-12-23 15:23:00,
2013-12-23 09:24:00,7.7,2.8,29.09,WNW,292,6.0,6.0,80,0.00,CLR,,0.00,WeatherDisplay:10.37,2013-12-23 15:24:00,
2013-12-23 09:25:00,7.7,2.8,29.09,WNW,292,6.0,6.0,80,0.00,CLR,,0.00,WeatherDisplay:10.37,2013-12-23 15:25:00,
2013-12-23 09:27:00,7.9,3.0,29.09,NW,315,9.2,9.2,80,0.00,CLR,,0.00,WeatherDisplay:10.37,2013-12-23 15:27:00,
2013-12-23 09:28:00,7.9,3.0,29.09,NW,315,9.2,9.2,80,0.00,CLR,,0.00,WeatherDisplay:10.37,2013-12-23 15:28:00,
2013-12-23 09:29:00,7.7,2.8,29.09,West,270,5.8,5.8,80,0.00,CLR,,0.00,WeatherDisplay:10.37,2013-12-23 15:29:00,
2013-12-23 09:30:00,7.9,3.0,29.09,West,270,5.8,5.8,80,0.00,CLR,,0.00,WeatherDisplay:10.37,2013-12-23 15:30:00,
2013-12-23 09:33:00,8.1,3.2,29.09,WNW,292,5.8,5.8,80,0.00,CLR,,0.00,WeatherDisplay:10.37,2013-12-23 15:33:00,
2013-12-23 09:35:00,8.3,3.4,29.09,WNW,298,3.0,9.0,80,0.00,CLR,,0.00,WeatherDisplay:10.37,2013-12-23 15:35:00,
2013-12-23 09:38:00,8.1,3.2,29.09,NW,315,6.4,6.4,80,0.00,CLR,,0.00,WeatherDisplay:10.37,2013-12-23 15:38:00,
2013-12-23 09:40:00,8.2,3.3,29.09,NW,315,4.6,4.9,80,0.00,CLR,,0.00,WeatherDisplay:10.37,2013-12-23 15:40:00,
2013-12-23 09:41:00,8.2,3.3,29.09,West,270,4.6,4.6,80,0.00,CLR,,0.00,WeatherDisplay:10.37,2013-12-23 15:41:00,
2013-12-23 09:43:00,8.4,3.5,29.09,WNW,292,4.6,4.6,80,0.00,CLR,,0.00,WeatherDisplay:10.37,2013-12-23 15:43:00,
2013-12-23 09:44:00,8.4,3.5,29.09,West,270,4.6,4.6,80,0.00,CLR,,0.00,WeatherDisplay:10.37,2013-12-23 15:44:00,
2013-12-23 09:45:00,8.7,3.8,29.09,WNW,294,2.0,5.0,80,0.00,CLR,,0.00,WeatherDisplay:10.37,2013-12-23 15:45:00,
2013-12-23 09:47:00,9.3,4.4,29.09,NW,315,3.1,3.1,80,0.00,CLR,,0.00,WeatherDisplay:10.37,2013-12-23 15:47:00,
2013-12-23 09:48:00,9.3,4.4,29.09,WSW,248,5.8,5.8,80,0.00,CLR,,0.00,WeatherDisplay:10.37,2013-12-23 15:48:00,
2013-12-23 09:49:00,9.3,4.4,29.09,NW,315,5.8,5.8,80,0.00,CLR,,0.00,WeatherDisplay:10.37,2013-12-23 15:49:00,
2013-12-23 09:50:00,9.3,4.4,29.09,WNW,292,3.5,3.5,80,0.00,CLR,,0.00,WeatherDisplay:10.37,2013-12-23 15:50:00,
2013-12-23 09:51:00,9.3,4.4,29.09,West,270,3.5,3.5,80,0.00,CLR,,0.00,WeatherDisplay:10.37,2013-12-23 15:51:00,
2013-12-23 09:52:00,9.7,4.7,29.09,SW,225,3.5,3.5,80,0.00,CLR,,0.00,WeatherDisplay:10.37,2013-12-23 15:52:00,
2013-12-23 09:54:00,9.3,4.4,29.09,WSW,248,5.8,5.8,80,0.00,CLR,,0.00,WeatherDisplay:10.37,2013-12-23 15:54:00,
2013-12-23 09:55:00,9.3,4.4,29.09,WSW,248,6.9,6.9,80,0.00,CLR,,0.00,WeatherDisplay:10.37,2013-12-23 15:55:00,
2013-12-23 09:56:00,9.5,4.6,29.09,West,270,10.9,10.9,80,0.00,CLR,,0.00,WeatherDisplay:10.37,2013-12-23 15:56:00,
2013-12-23 09:59:00,9.1,4.2,29.09,WSW,248,9.2,9.2,80,0.00,CLR,,0.00,WeatherDisplay:10.37,2013-12-23 15:59:00,
2013-12-23 10:00:00,9.1,4.2,29.09,NNW,338,8.1,8.1,80,0.00,CLR,,0.00,WeatherDisplay:10.37,2013-12-23 16:00:00,
2013-12-23 10:01:00,9.3,4.4,29.09,WNW,292,8.1,8.1,80,0.00,CLR,,0.00,WeatherDisplay:10.37,2013-12-23 16:01:00,
2013-12-23 10:04:00,9.9,4.9,29.09,WNW,292,4.6,4.6,80,0.00,CLR,,0.00,WeatherDisplay:10.37,2013-12-23 16:04:00,
2013-12-23 10:05:00,10.0,5.1,29.09,WSW,248,5.8,5.8,80,0.00,CLR,,0.00,WeatherDisplay:10.37,2013-12-23 16:05:00,
2013-12-23 10:06:00,9.9,4.9,29.09,WNW,292,5.8,5.8,80,0.00,CLR,,0.00,WeatherDisplay:10.37,2013-12-23 16:06:00,
2013-12-23 10:09:00,10.0,5.1,29.09,West,270,3.5,3.5,80,0.00,CLR,,0.00,WeatherDisplay:10.37,2013-12-23 16:09:00,
2013-12-23 10:10:00,10.2,5.3,29.09,WSW,248,4.9,4.9,80,0.00,CLR,,0.00,WeatherDisplay:10.37,2013-12-23 16:10:00,
2013-12-23 10:11:00,10.2,5.3,29.09,West,270,6.0,6.0,80,0.00,CLR,,0.00,WeatherDisplay:10.37,2013-12-23 16:11:00,
2013-12-23 10:14:00,10.2,5.3,29.09,WNW,292,9.2,9.2,80,0.00,CLR,,0.00,WeatherDisplay:10.37,2013-12-23 16:14:00,
2013-12-23 10:15:00,9.9,4.9,29.09,West,270,9.2,9.2,80,0.00,CLR,,0.00,WeatherDisplay:10.37,2013-12-23 16:15:00,
2013-12-23 10:16:00,9.9,4.9,29.09,WSW,248,5.8,5.9,80,0.00,CLR,,0.00,WeatherDisplay:10.37,2013-12-23 16:16:00,
2013-12-23 10:20:00,10.4,5.5,29.09,WNW,292,8.1,8.1,80,0.00,CLR,,0.00,WeatherDisplay:10.37,2013-12-23 16:20:00,
2013-12-23 10:21:00,11.5,6.5,29.09,WNW,292,3.8,3.8,80,0.00,CLR,,0.00,WeatherDisplay:10.37,2013-12-23 16:21:00,
2013-12-23 10:25:00,12.6,7.6,29.12,West,270,7.4,7.4,80,0.00,CLR,,0.00,WeatherDisplay:10.37,2013-12-23 16:25:00,
2013-12-23 10:26:00,12.2,7.2,29.12,West,270,6.9,6.9,80,0.00,CLR,,0.00,WeatherDisplay:10.37,2013-12-23 16:26:00,
2013-12-23 10:27:00,12.2,7.2,29.12,NW,315,5.8,5.8,80,0.00,CLR,,0.00,WeatherDisplay:10.37,2013-12-23 16:27:00,
2013-12-23 10:30:00,12.0,7.0,29.12,West,270,6.7,6.7,80,0.00,CLR,,0.00,WeatherDisplay:10.37,2013-12-23 16:30:00,
2013-12-23 10:31:00,11.8,6.9,29.12,West,270,6.9,6.9,80,0.00,CLR,,0.00,WeatherDisplay:10.37,2013-12-23 16:31:00,
2013-12-23 10:32:00,12.0,7.0,29.12,WNW,292,4.6,4.6,80,0.00,CLR,,0.00,WeatherDisplay:10.37,2013-12-23 16:32:00,
2013-12-23 10:35:00,14.5,-0.3,29.12,WSW,248,6.9,6.9,51,0.00,CLR,,0.00,WeatherDisplay:10.37,2013-12-23 16:35:00,
2013-12-23 10:36:00,14.5,-0.3,29.12,WNW,292,6.9,6.9,51,0.00,CLR,,0.00,WeatherDisplay:10.37,2013-12-23 16:36:00,
2013-12-23 10:37:00,14.9,0.0,29.12,WSW,248,6.9,6.9,51,0.00,CLR,,0.00,WeatherDisplay:10.37,2013-12-23 16:37:00,
2013-12-23 10:40:00,13.3,-2.3,29.12,North,0,4.6,4.6,49,0.00,CLR,,0.00,WeatherDisplay:10.37,2013-12-23 16:40:00,
2013-12-23 10:42:00,13.3,-2.3,29.12,WSW,248,4.3,4.3,49,0.00,CLR,,0.00,WeatherDisplay:10.37,2013-12-23 16:42:00,
2013-12-23 10:43:00,12.4,-3.2,29.12,WNW,292,5.8,5.8,49,0.00,CLR,,0.00,WeatherDisplay:10.37,2013-12-23 16:43:00,
2013-12-23 10:46:00,12.4,-3.2,29.12,WSW,248,6.4,6.4,49,0.00,CLR,,0.00,WeatherDisplay:10.37,2013-12-23 16:46:00,
2013-12-23 10:47:00,11.8,-3.7,29.12,WNW,292,6.0,6.0,49,0.00,CLR,,0.00,WeatherDisplay:10.37,2013-12-23 16:47:00,
2013-12-23 10:48:00,11.5,-4.0,29.12,West,270,6.9,6.9,49,0.00,CLR,,0.00,WeatherDisplay:10.37,2013-12-23 16:48:00,
2013-12-23 10:49:00,12.0,-3.5,29.12,West,270,4.6,4.6,49,0.00,CLR,,0.00,WeatherDisplay:10.37,2013-12-23 16:49:00,
2013-12-23 10:51:00,12.0,-3.5,29.12,West,270,8.1,8.1,49,0.00,CLR,,0.00,WeatherDisplay:10.37,2013-12-23 16:51:00,
2013-12-23 10:52:00,11.7,-3.8,29.12,West,270,8.1,8.1,49,0.00,CLR,,0.00,WeatherDisplay:10.37,2013-12-23 16:52:00,
2013-12-23 10:53:00,11.7,-3.8,29.12,WSW,248,8.1,8.1,49,0.00,CLR,,0.00,WeatherDisplay:10.37,2013-12-23 16:53:00,
2013-12-23 10:54:00,11.1,-4.3,29.12,SSW,202,8.1,8.1,49,0.00,CLR,,0.00,WeatherDisplay:10.37,2013-12-23 16:54:00,
2013-12-23 10:56:00,11.3,-4.2,29.12,West,270,5.8,5.8,49,0.00,CLR,,0.00,WeatherDisplay:10.37,2013-12-23 16:56:00,
2013-12-23 10:57:00,11.3,-4.2,29.12,West,270,5.8,5.8,49,0.00,CLR,,0.00,WeatherDisplay:10.37,2013-12-23 16:57:00,
2013-12-23 10:58:00,11.3,-4.2,29.12,WSW,248,9.2,9.2,49,0.00,CLR,,0.00,WeatherDisplay:10.37,2013-12-23 16:58:00,
2013-12-23 10:59:00,11.1,-4.3,29.12,NW,315,9.2,9.2,49,0.00,CLR,,0.00,WeatherDisplay:10.37,2013-12-23 16:59:00,
2013-12-23 11:02:00,12.2,-3.3,29.12,West,270,3.6,3.6,49,0.00,CLR,,0.00,WeatherDisplay:10.37,2013-12-23 17:02:00,
2013-12-23 11:03:00,11.5,-4.0,29.12,West,270,5.8,5.8,49,0.00,CLR,,0.00,WeatherDisplay:10.37,2013-12-23 17:03:00,
2013-12-23 11:04:00,11.7,-3.8,29.12,NNW,338,5.8,5.8,49,0.00,CLR,,0.00,WeatherDisplay:10.37,2013-12-23 17:04:00,
2013-12-23 11:05:00,11.5,-4.0,29.12,WNW,290,3.0,6.0,49,0.00,CLR,,0.00,WeatherDisplay:10.37,2013-12-23 17:05:00,
2013-12-23 11:07:00,11.7,-3.8,29.12,WNW,292,4.6,4.6,49,0.00,CLR,,0.00,WeatherDisplay:10.37,2013-12-23 17:07:00,
2013-12-23 11:09:00,12.2,-3.3,29.12,NW,315,4.6,4.6,49,0.00,CLR,,0.00,WeatherDisplay:10.37,2013-12-23 17:09:00,
2013-12-23 11:10:00,12.2,-3.3,29.12,SW,225,3.6,3.6,49,0.00,CLR,,0.00,WeatherDisplay:10.37,2013-12-23 17:10:00,
2013-12-23 11:12:00,12.2,-3.3,29.12,West,270,4.9,4.9,49,0.00,CLR,,0.00,WeatherDisplay:10.37,2013-12-23 17:12:00,
2013-12-23 11:14:00,11.8,-3.7,29.12,WNW,292,4.6,4.6,49,0.00,CLR,,0.00,WeatherDisplay:10.37,2013-12-23 17:14:00,
2013-12-23 11:15:00,11.5,-4.0,29.12,NW,315,4.6,4.6,49,0.00,CLR,,0.00,WeatherDisplay:10.37,2013-12-23 17:15:00,
2013-12-23 11:17:00,11.3,-4.2,29.12,WNW,292,6.2,6.2,49,0.00,CLR,,0.00,WeatherDisplay:10.37,2013-12-23 17:17:00,
2013-12-23 11:18:00,11.1,-4.3,29.12,NW,315,5.8,5.8,49,0.00,CLR,,0.00,WeatherDisplay:10.37,2013-12-23 17:18:00,
2013-12-23 11:19:00,11.5,-4.0,29.12,WNW,292,5.8,5.8,49,0.00,CLR,,0.00,WeatherDisplay:10.37,2013-12-23 17:19:00,
2013-12-23 11:20:00,11.5,-4.0,29.12,North,0,3.8,3.8,49,0.00,CLR,,0.00,WeatherDisplay:10.37,2013-12-23 17:20:00,
2013-12-23 11:21:00,11.3,-4.2,29.12,WNW,292,3.5,3.5,49,0.00,CLR,,0.00,WeatherDisplay:10.37,2013-12-23 17:21:00,
2013-12-23 11:22:00,11.3,-4.2,29.12,WNW,292,5.8,5.8,49,0.00,CLR,,0.00,WeatherDisplay:10.37,2013-12-23 17:22:00,
2013-12-23 11:23:00,11.3,-4.2,29.12,WNW,292,5.8,5.8,49,0.00,CLR,,0.00,WeatherDisplay:10.37,2013-12-23 17:23:00,
2013-12-23 11:24:00,11.3,-4.2,29.09,NW,315,4.6,4.6,49,0.00,CLR,,0.00,WeatherDisplay:10.37,2013-12-23 17:24:00,
2013-12-23 11:25:00,11.7,-3.8,29.09,NNW,338,5.8,5.8,49,0.00,CLR,,0.00,WeatherDisplay:10.37,2013-12-23 17:25:00,
2013-12-23 11:26:00,11.7,-3.8,29.09,WNW,292,5.8,5.8,49,0.00,CLR,,0.00,WeatherDisplay:10.37,2013-12-23 17:26:00,
2013-12-23 11:27:00,10.4,-5.0,29.09,NNW,338,10.4,10.4,49,0.00,CLR,,0.00,WeatherDisplay:10.37,2013-12-23 17:27:00,
2013-12-23 11:29:00,9.7,-5.7,29.09,WNW,292,10.4,10.4,49,0.00,CLR,,0.00,WeatherDisplay:10.37,2013-12-23 17:29:00,
2013-12-23 11:30:00,10.0,-5.4,29.09,NW,315,8.1,8.1,49,0.00,CLR,,0.00,WeatherDisplay:10.37,2013-12-23 17:30:00,
2013-12-23 11:31:00,10.6,-4.9,29.09,NNW,338,5.8,5.8,49,0.00,CLR,,0.00,WeatherDisplay:10.37,2013-12-23 17:31:00,
2013-12-23 11:33:00,11.3,-4.2,29.09,WNW,292,4.3,4.3,49,0.00,CLR,,0.00,WeatherDisplay:10.37,2013-12-23 17:33:00,
2013-12-23 11:34:00,11.5,-4.0,29.09,WNW,292,4.6,4.6,49,0.00,CLR,,0.00,WeatherDisplay:10.37,2013-12-23 17:34:00,
2013-12-23 11:35:00,11.5,-4.0,29.09,WNW,292,6.9,6.9,49,0.00,CLR,,0.00,WeatherDisplay:10.37,2013-12-23 17:35:00,
2013-12-23 11:36:00,10.9,-4.5,29.09,WNW,292,6.9,6.9,49,0.00,CLR,,0.00,WeatherDisplay:10.37,2013-12-23 17:36:00,
2013-12-23 11:38:00,11.7,-3.8,29.09,NW,315,5.9,5.9,49,0.00,CLR,,0.00,WeatherDisplay:10.37,2013-12-23 17:38:00,
2013-12-23 11:39:00,11.3,-4.2,29.09,WNW,292,6.9,6.9,49,0.00,CLR,,0.00,WeatherDisplay:10.37,2013-12-23 17:39:00,
2013-12-23 11:40:00,11.3,-4.2,29.09,NW,315,6.9,6.9,49,0.00,CLR,,0.00,WeatherDisplay:10.37,2013-12-23 17:40:00,
2013-12-23 11:41:00,11.1,-4.3,29.09,WNW,292,5.8,5.8,49,0.00,CLR,,0.00,WeatherDisplay:10.37,2013-12-23 17:41:00,
2013-12-23 11:42:00,11.1,-4.3,29.09,WNW,292,5.8,5.8,49,0.00,CLR,,0.00,WeatherDisplay:10.37,2013-12-23 17:42:00,
2013-12-23 11:43:00,10.8,-4.7,29.09,WNW,292,6.9,6.9,49,0.00,CLR,,0.00,WeatherDisplay:10.37,2013-12-23 17:43:00,
2013-12-23 11:45:00,11.1,-4.3,29.09,West,270,4.6,4.6,49,0.00,CLR,,0.00,WeatherDisplay:10.37,2013-12-23 17:45:00,
2013-12-23 11:46:00,12.2,-3.3,29.09,NW,315,2.4,3.3,49,0.00,CLR,,0.00,WeatherDisplay:10.37,2013-12-23 17:46:00,
2013-12-23 11:47:00,12.6,-3.0,29.09,WNW,292,3.3,3.3,49,0.00,CLR,,0.00,WeatherDisplay:10.37,2013-12-23 17:47:00,
2013-12-23 11:48:00,12.7,-2.8,29.09,NW,315,5.8,5.8,49,0.00,CLR,,0.00,WeatherDisplay:10.37,2013-12-23 17:48:00,
2013-12-23 11:50:00,12.0,-3.5,29.09,WNW,292,6.9,6.9,49,0.00,CLR,,0.00,WeatherDisplay:10.37,2013-12-23 17:50:00,
2013-12-23 11:51:00,12.0,-3.5,29.09,WNW,292,8.5,8.5,49,0.00,CLR,,0.00,WeatherDisplay:10.37,2013-12-23 17:51:00,
2013-12-23 11:52:00,11.3,-4.2,29.09,WNW,292,6.9,6.9,49,0.00,CLR,,0.00,WeatherDisplay:10.37,2013-12-23 17:52:00,
2013-12-23 11:54:00,11.1,-4.3,29.09,WNW,292,6.4,6.4,49,0.00,CLR,,0.00,WeatherDisplay:10.37,2013-12-23 17:54:00,
2013-12-23 11:56:00,11.1,-4.3,29.09,NW,315,6.9,6.9,49,0.00,CLR,,0.00,WeatherDisplay:10.37,2013-12-23 17:56:00,
2013-12-23 11:57:00,11.3,-4.2,29.09,West,270,6.9,6.9,49,0.00,CLR,,0.00,WeatherDisplay:10.37,2013-12-23 17:57:00,
2013-12-23 11:58:00,12.9,-2.7,29.09,NW,315,4.6,4.6,49,0.00,CLR,,0.00,WeatherDisplay:10.37,2013-12-23 17:58:00,
2013-12-23 11:59:00,12.9,-2.7,29.09,North,0,4.6,4.6,49,0.00,CLR,,0.00,WeatherDisplay:10.37,2013-12-23 17:59:00,
2013-12-23 12:01:00,13.1,-2.5,29.09,NW,315,5.8,5.8,49,0.00,CLR,,0.00,WeatherDisplay:10.37,2013-12-23 18:01:00,
2013-12-23 12:02:00,13.3,-2.3,29.09,North,0,3.6,3.6,49,0.00,CLR,,0.00,WeatherDisplay:10.37,2013-12-23 18:02:00,
2013-12-23 12:04:00,11.8,-3.7,29.09,NW,315,7.6,7.6,49,0.00,CLR,,0.00,WeatherDisplay:10.37,2013-12-23 18:04:00,
2013-12-23 12:06:00,11.3,-4.2,29.09,NW,315,9.2,9.2,49,0.00,CLR,,0.00,WeatherDisplay:10.37,2013-12-23 18:06:00,
2013-12-23 12:07:00,11.3,-4.2,29.09,WNW,292,9.2,9.2,49,0.00,CLR,,0.00,WeatherDisplay:10.37,2013-12-23 18:07:00,
2013-12-23 12:09:00,11.3,-4.2,29.09,NNW,338,8.1,8.1,49,0.00,CLR,,0.00,WeatherDisplay:10.37,2013-12-23 18:09:00,
2013-12-23 12:11:00,12.0,-3.5,29.09,WNW,292,6.0,6.0,49,0.00,CLR,,0.00,WeatherDisplay:10.37,2013-12-23 18:11:00,
2013-12-23 12:12:00,11.7,-3.8,29.09,NW,315,7.8,7.8,49,0.00,CLR,,0.00,WeatherDisplay:10.37,2013-12-23 18:12:00,
2013-12-23 12:13:00,11.7,-3.8,29.09,WNW,292,8.5,8.5,49,0.00,CLR,,0.00,WeatherDisplay:10.37,2013-12-23 18:13:00,
2013-12-23 12:14:00,11.7,-3.8,29.09,West,270,8.1,8.1,49,0.00,CLR,,0.00,WeatherDisplay:10.37,2013-12-23 18:14:00,
2013-12-23 12:16:00,12.6,-3.0,29.09,West,270,5.8,5.8,49,0.00,CLR,,0.00,WeatherDisplay:10.37,2013-12-23 18:16:00,
2013-12-23 12:17:00,12.4,-3.2,29.09,WNW,292,6.0,6.4,49,0.00,CLR,,0.00,WeatherDisplay:10.37,2013-12-23 18:17:00,
2013-12-23 12:18:00,12.9,-2.7,29.09,WNW,292,6.0,6.0,49,0.00,CLR,,0.00,WeatherDisplay:10.37,2013-12-23 18:18:00,
2013-12-23 12:19:00,12.9,-2.7,29.09,West,270,5.8,5.8,49,0.00,CLR,,0.00,WeatherDisplay:10.37,2013-12-23 18:19:00,
2013-12-23 12:20:00,12.2,-3.3,29.09,NW,315,6.2,6.2,49,0.00,CLR,,0.00,WeatherDisplay:10.37,2013-12-23 18:20:00,
2013-12-23 12:22:00,13.3,-2.3,29.09,West,270,7.4,7.4,49,0.00,CLR,,0.00,WeatherDisplay:10.37,2013-12-23 18:22:00,
2013-12-23 12:23:00,12.4,-3.2,29.09,North,0,9.2,9.2,49,0.00,CLR,,0.00,WeatherDisplay:10.37,2013-12-23 18:23:00,
2013-12-23 12:24:00,12.2,-3.3,29.09,NW,315,9.2,9.2,49,0.00,CLR,,0.00,WeatherDisplay:10.37,2013-12-23 18:24:00,
2013-12-23 12:25:00,12.2,-3.3,29.09,WNW,296,7.0,9.0,49,0.00,CLR,,0.00,WeatherDisplay:10.37,2013-12-23 18:25:00,
2013-12-23 12:27:00,12.2,-3.3,29.09,WNW,292,9.2,9.2,49,0.00,CLR,,0.00,WeatherDisplay:10.37,2013-12-23 18:27:00,
2013-12-23 12:28:00,13.8,-1.8,29.09,NW,315,6.9,6.9,49,0.00,CLR,,0.00,WeatherDisplay:10.37,2013-12-23 18:28:00,
2013-12-23 12:29:00,13.8,-1.8,29.09,NNW,338,4.6,4.6,49,0.00,CLR,,0.00,WeatherDisplay:10.37,2013-12-23 18:29:00,
2013-12-23 12:30:00,15.1,-1.1,29.09,West,270,4.6,4.6,48,0.00,CLR,,0.00,WeatherDisplay:10.37,2013-12-23 18:30:00,
2013-12-23 12:32:00,16.5,0.2,29.09,NW,315,5.8,5.8,48,0.00,CLR,,0.00,WeatherDisplay:10.37,2013-12-23 18:32:00,
2013-12-23 12:34:00,15.6,-1.5,29.09,NW,315,8.1,8.1,46,0.00,CLR,,0.00,WeatherDisplay:10.37,2013-12-23 18:34:00,
2013-12-23 12:35:00,15.7,-1.5,29.09,WNW,303,5.0,8.0,46,0.00,CLR,,0.00,WeatherDisplay:10.37,2013-12-23 18:35:00,
2013-12-23 12:36:00,15.3,-1.9,29.09,North,0,5.8,6.0,46,0.00,CLR,,0.00,WeatherDisplay:10.37,2013-12-23 18:36:00,
2013-12-23 12:37:00,15.6,-1.5,29.09,WNW,292,5.8,5.8,46,0.00,CLR,,0.00,WeatherDisplay:10.37,2013-12-23 18:37:00,
2013-12-23 12:38:00,16.2,-1.0,29.09,NW,315,5.8,5.8,46,0.00,CLR,,0.00,WeatherDisplay:10.37,2013-12-23 18:38:00,
2013-12-23 12:39:00,16.2,-1.0,29.09,WNW,292,4.6,4.6,46,0.00,CLR,,0.00,WeatherDisplay:10.37,2013-12-23 18:39:00,
2013-12-23 12:40:00,16.2,-1.0,29.09,West,270,8.1,8.1,46,0.00,CLR,,0.00,WeatherDisplay:10.37,2013-12-23 18:40:00,
2013-12-23 12:41:00,14.9,-2.6,29.09,WNW,292,8.1,8.1,45,0.00,CLR,,0.00,WeatherDisplay:10.37,2013-12-23 18:41:00,
2013-12-23 12:42:00,14.9,-2.6,29.09,West,270,9.2,9.2,45,0.00,CLR,,0.00,WeatherDisplay:10.37,2013-12-23 18:42:00,
2013-12-23 12:44:00,14.9,-2.6,29.09,WNW,292,9.2,9.2,45,0.00,CLR,,0.00,WeatherDisplay:10.37,2013-12-23 18:44:00,
2013-12-23 12:45:00,14.9,-2.6,29.09,West,270,5.8,5.8,45,0.00,CLR,,0.00,WeatherDisplay:10.37,2013-12-23 18:45:00,
2013-12-23 12:47:00,14.9,-2.6,29.09,NW,315,6.9,6.9,45,0.00,CLR,,0.00,WeatherDisplay:10.37,2013-12-23 18:47:00,
2013-12-23 12:48:00,15.3,-2.3,29.09,SW,225,6.9,6.9,45,0.00,CLR,,0.00,WeatherDisplay:10.37,2013-12-23 18:48:00,
2013-12-23 12:49:00,15.6,-2.0,29.09,West,270,6.9,6.9,45,0.00,CLR,,0.00,WeatherDisplay:10.37,2013-12-23 18:49:00,
2013-12-23 12:50:00,15.4,-2.2,29.09,West,270,8.1,8.1,45,0.00,CLR,,0.00,WeatherDisplay:10.37,2013-12-23 18:50:00,
2013-12-23 12:52:00,15.8,-1.8,29.09,WNW,292,8.1,8.1,45,0.00,CLR,,0.00,WeatherDisplay:10.37,2013-12-23 18:52:00,
2013-12-23 12:53:00,16.5,-1.6,29.09,WNW,292,8.1,8.1,44,0.00,CLR,,0.00,WeatherDisplay:10.37,2013-12-23 18:53:00,
2013-12-23 12:54:00,16.5,-1.6,29.09,NW,315,5.8,5.8,44,0.00,CLR,,0.00,WeatherDisplay:10.37,2013-12-23 18:54:00,
2013-12-23 12:55:00,16.5,-1.6,29.09,NW,315,5.8,5.8,44,0.00,CLR,,0.00,WeatherDisplay:10.37,2013-12-23 18:55:00,
2013-12-23 12:58:00,18.1,-0.2,29.09,NW,315,8.1,8.1,44,0.00,CLR,,0.00,WeatherDisplay:10.37,2013-12-23 18:58:00,
2013-12-23 12:59:00,19.4,1.5,29.09,West,270,4.6,4.6,45,0.00,CLR,,0.00,WeatherDisplay:10.37,2013-12-23 18:59:00,
2013-12-23 13:00:00,19.4,1.5,29.09,West,270,5.9,5.9,45,0.00,CLR,,0.00,WeatherDisplay:10.37,2013-12-23 19:00:00,
2013-12-23 13:01:00,18.5,0.2,29.09,West,270,8.1,8.1,44,0.00,CLR,,0.00,WeatherDisplay:10.37,2013-12-23 19:01:00,
2013-12-23 13:03:00,18.1,-0.2,29.09,NW,315,8.1,8.1,44,0.00,CLR,,0.00,WeatherDisplay:10.37,2013-12-23 19:03:00,
2013-12-23 13:04:00,18.0,-0.3,29.09,WNW,292,5.8,5.8,44,0.00,CLR,,0.00,WeatherDisplay:10.37,2013-12-23 19:04:00,
2013-12-23 13:05:00,18.0,-0.3,29.09,WNW,292,6.4,6.4,44,0.00,CLR,,0.00,WeatherDisplay:10.37,2013-12-23 19:05:00,
2013-12-23 13:06:00,16.9,-1.3,29.09,WNW,292,6.9,6.9,44,0.00,CLR,,0.00,WeatherDisplay:10.37,2013-12-23 19:06:00,
2013-12-23 13:08:00,16.0,-2.1,29.09,West,270,8.1,8.1,44,0.00,CLR,,0.00,WeatherDisplay:10.37,2013-12-23 19:08:00,
2013-12-23 13:10:00,15.4,-2.6,29.09,WNW,292,5.9,6.2,44,0.00,CLR,,0.00,WeatherDisplay:10.37,2013-12-23 19:10:00,
2013-12-23 13:11:00,16.0,-2.1,29.09,West,270,5.8,5.8,44,0.00,CLR,,0.00,WeatherDisplay:10.37,2013-12-23 19:11:00,
2013-12-23 13:13:00,16.0,-2.1,29.09,SW,225,9.2,9.2,44,0.00,CLR,,0.00,WeatherDisplay:10.37,2013-12-23 19:13:00,
2013-12-23 13:15:00,16.2,-2.0,29.09,West,270,5.8,5.8,44,0.00,CLR,,0.00,WeatherDisplay:10.37,2013-12-23 19:15:00,
2013-12-23 13:16:00,16.7,-1.5,29.09,WNW,292,5.8,5.8,44,0.00,CLR,,0.00,WeatherDisplay:10.37,2013-12-23 19:16:00,
2013-12-23 13:18:00,15.8,-2.3,29.09,WNW,292,6.9,6.9,44,0.00,CLR,,0.00,WeatherDisplay:10.37,2013-12-23 19:18:00,
2013-12-23 13:19:00,15.8,-2.3,29.09,West,270,5.8,5.8,44,0.00,CLR,,0.00,WeatherDisplay:10.37,2013-12-23 19:19:00,
2013-12-23 13:20:00,15.4,-2.6,29.09,West,270,7.4,7.4,44,0.00,CLR,,0.00,WeatherDisplay:10.37,2013-12-23 19:20:00,
2013-12-23 13:21:00,15.6,-2.5,29.09,WNW,292,10.4,10.4,44,0.00,CLR,,0.00,WeatherDisplay:10.37,2013-12-23 19:21:00,
2013-12-23 13:23:00,15.8,-1.8,29.09,WNW,292,11.4,11.4,45,0.00,CLR,,0.00,WeatherDisplay:10.37,2013-12-23 19:23:00,
2013-12-23 13:24:00,15.8,-1.8,29.12,West,270,11.5,11.5,45,0.00,CLR,,0.00,WeatherDisplay:10.37,2013-12-23 19:24:00,
2013-12-23 13:25:00,14.7,-3.3,29.12,West,270,9.2,9.2,44,0.00,CLR,,0.00,WeatherDisplay:10.37,2013-12-23 19:25:00,
2013-12-23 13:26:00,15.1,-3.0,29.12,West,270,9.2,9.2,44,0.00,CLR,,0.00,WeatherDisplay:10.37,2013-12-23 19:26:00,
2013-12-23 13:27:00,15.1,-3.0,29.12,SSW,202,9.2,9.2,44,0.00,CLR,,0.00,WeatherDisplay:10.37,2013-12-23 19:27:00,
2013-12-23 13:29:00,14.2,-3.8,29.12,West,270,6.0,6.0,44,0.00,CLR,,0.00,WeatherDisplay:10.37,2013-12-23 19:29:00,
2013-12-23 13:30:00,14.2,-3.8,29.12,WNW,292,5.8,5.8,44,0.00,CLR,,0.00,WeatherDisplay:10.37,2013-12-23 19:30:00,
2013-12-23 13:31:00,13.1,-4.8,29.12,WNW,292,7.8,7.8,44,0.00,CLR,,0.00,WeatherDisplay:10.37,2013-12-23 19:31:00,
2013-12-23 13:32:00,12.6,-5.3,29.12,WNW,292,10.4,10.4,44,0.00,CLR,,0.00,WeatherDisplay:10.37,2013-12-23 19:32:00,
2013-12-23 13:35:00,13.6,-4.3,29.12,West,270,5.8,5.8,44,0.00,CLR,,0.00,WeatherDisplay:10.37,2013-12-23 19:35:00,
2013-12-23 13:36:00,13.6,-4.3,29.12,West,270,4.3,4.3,44,0.00,CLR,,0.00,WeatherDisplay:10.37,2013-12-23 19:36:00,
2013-12-23 13:37:00,14.0,-3.0,29.12,WSW,248,4.9,4.9,46,0.00,CLR,,0.00,WeatherDisplay:10.37,2013-12-23 19:37:00,
2013-12-23 13:40:00,12.6,-4.3,29.12,West,270,8.1,8.1,46,0.00,CLR,,0.00,WeatherDisplay:10.37,2013-12-23 19:40:00,
2013-12-23 13:41:00,12.7,-4.2,29.12,NW,315,6.9,6.9,46,0.00,CLR,,0.00,WeatherDisplay:10.37,2013-12-23 19:41:00,
2013-12-23 13:42:00,13.3,-3.7,29.12,West,270,4.3,4.3,46,0.00,CLR,,0.00,WeatherDisplay:10.37,2013-12-23 19:42:00,
2013-12-23 13:45:00,12.9,-4.0,29.12,West,270,4.6,4.6,46,0.00,CLR,,0.00,WeatherDisplay:10.37,2013-12-23 19:45:00,
2013-12-23 13:46:00,12.9,-4.0,29.12,SSW,202,6.9,6.9,46,0.00,CLR,,0.00,WeatherDisplay:10.37,2013-12-23 19:46:00,
2013-12-23 13:48:00,12.6,-4.3,29.12,WNW,292,8.1,8.1,46,0.00,CLR,,0.00,WeatherDisplay:10.37,2013-12-23 19:48:00,
2013-12-23 13:50:00,12.4,-4.5,29.12,NW,315,5.8,5.8,46,0.00,CLR,,0.00,WeatherDisplay:10.37,2013-12-23 19:50:00,
2013-12-23 13:51:00,12.2,-4.7,29.12,WSW,248,5.6,5.6,46,0.00,CLR,,0.00,WeatherDisplay:10.37,2013-12-23 19:51:00,
2013-12-23 13:52:00,12.2,-4.7,29.12,West,270,6.9,6.9,46,0.00,CLR,,0.00,WeatherDisplay:10.37,2013-12-23 19:52:00,
2013-12-23 13:53:00,12.0,-4.8,29.12,WSW,248,8.1,8.1,46,0.00,CLR,,0.00,WeatherDisplay:10.37,2013-12-23 19:53:00,
2013-12-23 13:56:00,11.8,-5.0,29.12,West,270,8.1,8.1,46,0.00,CLR,,0.00,WeatherDisplay:10.37,2013-12-23 19:56:00,
2013-12-23 13:57:00,11.7,-5.2,29.12,WNW,292,8.1,8.1,46,0.00,CLR,,0.00,WeatherDisplay:10.37,2013-12-23 19:57:00,
2013-12-23 13:58:00,11.7,-5.2,29.12,West,270,4.6,4.9,46,0.00,CLR,,0.00,WeatherDisplay:10.37,2013-12-23 19:58:00,
2013-12-23 14:01:00,11.3,-5.5,29.12,West,270,7.1,7.1,46,0.00,CLR,,0.00,WeatherDisplay:10.37,2013-12-23 20:01:00,
2013-12-23 14:02:00,11.3,-5.5,29.12,WNW,292,6.4,6.4,46,0.00,CLR,,0.00,WeatherDisplay:10.37,2013-12-23 20:02:00,
2013-12-23 14:03:00,11.5,-5.3,29.12,WSW,248,6.9,6.9,46,0.00,CLR,,0.00,WeatherDisplay:10.37,2013-12-23 20:03:00,
2013-12-23 14:06:00,11.3,-5.5,29.12,WSW,248,4.0,4.0,46,0.00,CLR,,0.00,WeatherDisplay:10.37,2013-12-23 20:06:00,
2013-12-23 14:07:00,11.3,-5.5,29.12,WNW,292,8.1,8.1,46,0.00,CLR,,0.00,WeatherDisplay:10.37,2013-12-23 20:07:00,
2013-12-23 14:08:00,10.9,-5.8,29.12,WSW,248,9.2,9.2,46,0.00,CLR,,0.00,WeatherDisplay:10.37,2013-12-23 20:08:00,
2013-12-23 14:11:00,10.6,-6.2,29.12,West,270,5.8,5.8,46,0.00,CLR,,0.00,WeatherDisplay:10.37,2013-12-23 20:11:00,
2013-12-23 14:12:00,10.6,-6.2,29.12,WSW,248,5.8,5.8,46,0.00,CLR,,0.00,WeatherDisplay:10.37,2013-12-23 20:12:00,
2013-12-23 14:13:00,10.2,-6.5,29.12,WSW,248,8.1,8.1,46,0.00,CLR,,0.00,WeatherDisplay:10.37,2013-12-23 20:13:00,
2013-12-23 14:16:00,10.2,-6.5,29.12,West,270,6.0,6.0,46,0.00,CLR,,0.00,WeatherDisplay:10.37,2013-12-23 20:16:00,
2013-12-23 14:17:00,10.0,-6.7,29.12,West,270,5.8,5.8,46,0.00,CLR,,0.00,WeatherDisplay:10.37,2013-12-23 20:17:00,
2013-12-23 14:18:00,10.0,-6.7,29.12,West,270,5.6,5.6,46,0.00,CLR,,0.00,WeatherDisplay:10.37,2013-12-23 20:18:00,
2013-12-23 14:19:00,10.0,-6.7,29.12,WSW,248,7.4,7.4,46,0.00,CLR,,0.00,WeatherDisplay:10.37,2013-12-23 20:19:00,
2013-12-23 14:21:00,9.7,-7.0,29.12,WSW,248,6.9,6.9,46,0.00,CLR,,0.00,WeatherDisplay:10.37,2013-12-23 20:21:00,
2013-12-23 14:22:00,9.7,-7.0,29.12,West,270,6.9,6.9,46,0.00,CLR,,0.00,WeatherDisplay:10.37,2013-12-23 20:22:00,
2013-12-23 14:23:00,9.7,-7.0,29.12,West,270,6.9,6.9,46,0.00,CLR,,0.00,WeatherDisplay:10.37,2013-12-23 20:23:00,
2013-12-23 14:24:00,10.2,-6.5,29.12,West,270,5.8,5.8,46,0.00,CLR,,0.00,WeatherDisplay:10.37,2013-12-23 20:24:00,
2013-12-23 14:25:00,10.2,-6.5,29.12,West,270,4.6,4.6,46,0.00,CLR,,0.00,WeatherDisplay:10.37,2013-12-23 20:25:00,
2013-12-23 14:26:00,10.2,-6.5,29.12,WNW,292,3.6,4.5,46,0.00,CLR,,0.00,WeatherDisplay:10.37,2013-12-23 20:26:00,
2013-12-23 14:28:00,10.0,-6.7,29.12,West,270,5.8,5.8,46,0.00,CLR,,0.00,WeatherDisplay:10.37,2013-12-23 20:28:00,
2013-12-23 14:30:00,9.7,-7.0,29.12,WSW,248,8.1,8.1,46,0.00,CLR,,0.00,WeatherDisplay:10.37,2013-12-23 20:30:00,
2013-12-23 14:31:00,9.9,-6.8,29.12,SW,225,8.1,8.1,46,0.00,CLR,,0.00,WeatherDisplay:10.37,2013-12-23 20:31:00,
2013-12-23 14:33:00,9.7,-7.0,29.12,WSW,248,9.2,9.2,46,0.00,CLR,,0.00,WeatherDisplay:10.37,2013-12-23 20:33:00,
2013-12-23 14:34:00,9.5,-7.2,29.12,NW,315,8.1,8.1,46,0.00,CLR,,0.00,WeatherDisplay:10.37,2013-12-23 20:34:00,
2013-12-23 14:35:00,9.5,-7.2,29.12,WSW,248,8.1,8.1,46,0.00,CLR,,0.00,WeatherDisplay:10.37,2013-12-23 20:35:00,
2013-12-23 14:36:00,9.5,-7.2,29.12,West,270,5.9,5.9,46,0.00,CLR,,0.00,WeatherDisplay:10.37,2013-12-23 20:36:00,
2013-12-23 14:38:00,9.5,-7.2,29.12,West,270,10.4,10.4,46,0.00,CLR,,0.00,WeatherDisplay:10.37,2013-12-23 20:38:00,
2013-12-23 14:39:00,9.3,-7.3,29.12,West,270,8.1,8.1,46,0.00,CLR,,0.00,WeatherDisplay:10.37,2013-12-23 20:39:00,
2013-12-23 14:40:00,9.5,-7.2,29.15,NNW,338,8.1,8.1,46,0.00,CLR,,0.00,WeatherDisplay:10.37,2013-12-23 20:40:00,
2013-12-23 14:42:00,9.7,-7.0,29.15,WNW,292,6.9,6.9,46,0.00,CLR,,0.00,WeatherDisplay:10.37,2013-12-23 20:42:00,
2013-12-23 14:43:00,9.5,-7.2,29.15,West,270,6.0,6.0,46,0.00,CLR,,0.00,WeatherDisplay:10.37,2013-12-23 20:43:00,
2013-12-23 14:44:00,9.5,-7.2,29.15,WNW,292,5.8,5.8,46,0.00,CLR,,0.00,WeatherDisplay:10.37,2013-12-23 20:44:00,
2013-12-23 14:45:00,9.5,-7.2,29.15,NW,315,4.6,4.6,46,0.00,CLR,,0.00,WeatherDisplay:10.37,2013-12-23 20:45:00,
2013-12-23 14:47:00,9.3,-7.3,29.15,WSW,248,5.8,5.8,46,0.00,CLR,,0.00,WeatherDisplay:10.37,2013-12-23 20:47:00,
2013-12-23 14:48:00,9.3,-7.3,29.15,WNW,292,5.8,5.8,46,0.00,CLR,,0.00,WeatherDisplay:10.37,2013-12-23 20:48:00,
2013-12-23 14:49:00,9.7,-7.0,29.15,West,270,5.9,5.9,46,0.00,CLR,,0.00,WeatherDisplay:10.37,2013-12-23 20:49:00,
2013-12-23 14:50:00,9.7,-7.0,29.15,WNW,292,5.8,5.8,46,0.00,CLR,,0.00,WeatherDisplay:10.37,2013-12-23 20:50:00,
2013-12-23 14:52:00,10.0,-6.7,29.15,WNW,292,6.9,6.9,46,0.00,CLR,,0.00,WeatherDisplay:10.37,2013-12-23 20:52:00,
2013-12-23 14:53:00,10.0,-6.7,29.15,WNW,292,6.9,6.9,46,0.00,CLR,,0.00,WeatherDisplay:10.37,2013-12-23 20:53:00,
2013-12-23 14:54:00,9.9,-6.8,29.15,WNW,292,6.9,6.9,46,0.00,CLR,,0.00,WeatherDisplay:10.37,2013-12-23 20:54:00,
2013-12-23 14:56:00,10.2,-6.5,29.15,NW,315,6.4,6.4,46,0.00,CLR,,0.00,WeatherDisplay:10.37,2013-12-23 20:56:00,
2013-12-23 14:58:00,10.2,-6.5,29.15,West,270,5.8,5.8,46,0.00,CLR,,0.00,WeatherDisplay:10.37,2013-12-23 20:58:00,
2013-12-23 14:59:00,10.2,-6.5,29.15,WNW,292,5.8,5.8,46,0.00,CLR,,0.00,WeatherDisplay:10.37,2013-12-23 20:59:00,
2013-12-23 15:01:00,10.0,-6.7,29.15,West,270,8.1,8.1,46,0.00,CLR,,0.00,WeatherDisplay:10.37,2013-12-23 21:01:00,
2013-12-23 15:03:00,10.0,-6.7,29.15,West,270,8.1,8.1,46,0.00,CLR,,0.00,WeatherDisplay:10.37,2013-12-23 21:03:00,
2013-12-23 15:04:00,9.9,-6.8,29.15,WSW,248,8.1,8.1,46,0.00,CLR,,0.00,WeatherDisplay:10.37,2013-12-23 21:04:00,
2013-12-23 15:05:00,10.0,-6.7,29.15,West,270,8.1,8.1,46,0.00,CLR,,0.00,WeatherDisplay:10.37,2013-12-23 21:05:00,
2013-12-23 15:07:00,10.2,-6.5,29.15,WNW,292,5.6,5.6,46,0.00,CLR,,0.00,WeatherDisplay:10.37,2013-12-23 21:07:00,
2013-12-23 15:08:00,10.6,-6.2,29.15,WSW,248,5.8,5.8,46,0.00,CLR,,0.00,WeatherDisplay:10.37,2013-12-23 21:08:00,
2013-12-23 15:09:00,10.6,-6.2,29.15,WSW,248,5.8,5.8,46,0.00,CLR,,0.00,WeatherDisplay:10.37,2013-12-23 21:09:00,
2013-12-23 15:10:00,10.6,-6.2,29.15,West,269,5.0,7.0,46,0.00,CLR,,0.00,WeatherDisplay:10.37,2013-12-23 21:10:00,
2013-12-23 15:12:00,11.1,-5.7,29.15,WNW,292,4.6,4.6,46,0.00,CLR,,0.00,WeatherDisplay:10.37,2013-12-23 21:12:00,
2013-12-23 15:13:00,10.9,-5.8,29.15,West,270,5.6,5.6,46,0.00,CLR,,0.00,WeatherDisplay:10.37,2013-12-23 21:13:00,
2013-12-23 15:15:00,10.8,-6.0,29.15,West,270,5.8,5.8,46,0.00,CLR,,0.00,WeatherDisplay:10.37,2013-12-23 21:15:00,
2013-12-23 15:17:00,10.2,-6.5,29.15,South,180,8.1,8.1,46,0.00,CLR,,0.00,WeatherDisplay:10.37,2013-12-23 21:17:00,
2013-12-23 15:18:00,10.4,-6.3,29.15,WSW,248,6.4,6.4,46,0.00,CLR,,0.00,WeatherDisplay:10.37,2013-12-23 21:18:00,
2013-12-23 15:20:00,11.1,-5.7,29.15,WNW,292,6.9,6.9,46,0.00,CLR,,0.00,WeatherDisplay:10.37,2013-12-23 21:20:00,
2013-12-23 15:21:00,10.8,-6.0,29.15,South,180,8.7,8.7,46,0.00,CLR,,0.00,WeatherDisplay:10.37,2013-12-23 21:21:00,
2013-12-23 15:23:00,11.3,-5.5,29.15,WSW,248,2.3,2.3,46,0.00,CLR,,0.00,WeatherDisplay:10.37,2013-12-23 21:23:00,
2013-12-23 15:24:00,11.7,-5.2,29.15,West,270,5.8,5.8,46,0.00,CLR,,0.00,WeatherDisplay:10.37,2013-12-23 21:24:00,
2013-12-23 15:25:00,11.7,-5.2,29.15,NNW,338,5.8,5.8,46,0.00,CLR,,0.00,WeatherDisplay:10.37,2013-12-23 21:25:00,
2013-12-23 15:26:00,11.1,-5.7,29.15,WSW,248,5.8,5.8,46,0.00,CLR,,0.00,WeatherDisplay:10.37,2013-12-23 21:26:00,
2013-12-23 15:28:00,11.1,-5.7,29.15,West,270,4.6,4.6,46,0.00,CLR,,0.00,WeatherDisplay:10.37,2013-12-23 21:28:00,
2013-12-23 15:29:00,11.1,-5.7,29.15,NNW,338,5.4,5.4,46,0.00,CLR,,0.00,WeatherDisplay:10.37,2013-12-23 21:29:00,
2013-12-23 15:30:00,10.9,-5.8,29.15,SSW,202,5.8,5.8,46,0.00,CLR,,0.00,WeatherDisplay:10.37,2013-12-23 21:30:00,
2013-12-23 15:32:00,10.8,-6.0,29.15,NNW,338,8.1,8.1,46,0.00,CLR,,0.00,WeatherDisplay:10.37,2013-12-23 21:32:00,
2013-12-23 15:34:00,10.4,-6.3,29.15,NW,315,11.5,11.5,46,0.00,CLR,,0.00,WeatherDisplay:10.37,2013-12-23 21:34:00,
2013-12-23 15:35:00,10.2,-6.5,29.15,SW,225,5.8,5.8,46,0.00,CLR,,0.00,WeatherDisplay:10.37,2013-12-23 21:35:00,
2013-12-23 15:36:00,9.9,-6.8,29.15,WSW,248,7.8,7.8,46,0.00,CLR,,0.00,WeatherDisplay:10.37,2013-12-23 21:36:00,
2013-12-23 15:37:00,9.9,-6.8,29.15,WNW,292,11.5,11.5,46,0.00,CLR,,0.00,WeatherDisplay:10.37,2013-12-23 21:37:00,
2013-12-23 15:39:00,10.0,-6.7,29.12,WSW,248,5.8,5.8,46,0.00,CLR,,0.00,WeatherDisplay:10.37,2013-12-23 21:39:00,
2013-12-23 15:40:00,10.4,-6.3,29.12,NNW,338,3.5,3.5,46,0.00,CLR,,0.00,WeatherDisplay:10.37,2013-12-23 21:40:00,
2013-12-23 15:41:00,9.9,-6.8,29.12,WSW,248,4.6,4.6,46,0.00,CLR,,0.00,WeatherDisplay:10.37,2013-12-23 21:41:00,
2013-12-23 15:42:00,10.0,-6.7,29.12,WSW,248,5.8,5.8,46,0.00,CLR,,0.00,WeatherDisplay:10.37,2013-12-23 21:42:00,
2013-12-23 15:44:00,9.5,-7.2,29.12,SW,225,5.8,5.8,46,0.00,CLR,,0.00,WeatherDisplay:10.37,2013-12-23 21:44:00,
2013-12-23 15:45:00,9.5,-7.2,29.12,SSW,202,4.6,4.6,46,0.00,CLR,,0.00,WeatherDisplay:10.37,2013-12-23 21:45:00,
2013-12-23 15:46:00,9.3,-7.3,29.12,SW,225,4.7,4.7,46,0.00,CLR,,0.00,WeatherDisplay:10.37,2013-12-23 21:46:00,
2013-12-23 15:47:00,9.3,-7.3,29.12,WSW,248,5.8,5.8,46,0.00,CLR,,0.00,WeatherDisplay:10.37,2013-12-23 21:47:00,
2013-12-23 15:49:00,8.4,-8.2,29.12,NW,315,4.6,4.6,46,0.00,CLR,,0.00,WeatherDisplay:10.37,2013-12-23 21:49:00,
2013-12-23 15:50:00,8.4,-8.2,29.12,West,270,5.8,5.8,46,0.00,CLR,,0.00,WeatherDisplay:10.37,2013-12-23 21:50:00,
2013-12-23 15:51:00,8.6,-8.0,29.12,West,270,5.8,5.8,46,0.00,CLR,,0.00,WeatherDisplay:10.37,2013-12-23 21:51:00,
2013-12-23 15:52:00,8.2,-8.3,29.12,WNW,292,7.1,7.1,46,0.00,CLR,,0.00,WeatherDisplay:10.37,2013-12-23 21:52:00,
2013-12-23 15:53:00,8.1,-8.5,29.12,WNW,292,6.9,6.9,46,0.00,CLR,,0.00,WeatherDisplay:10.37,2013-12-23 21:53:00,
2013-12-23 15:55:00,7.9,-8.7,29.15,WSW,248,6.2,6.2,46,0.00,CLR,,0.00,WeatherDisplay:10.37,2013-12-23 21:55:00,
2013-12-23 15:56:00,7.7,-8.8,29.15,NW,315,5.8,5.8,46,0.00,CLR,,0.00,WeatherDisplay:10.37,2013-12-23 21:56:00,
2013-12-23 15:57:00,7.5,-9.0,29.15,WSW,248,4.6,5.6,46,0.00,CLR,,0.00,WeatherDisplay:10.37,2013-12-23 21:57:00,
2013-12-23 15:58:00,7.5,-9.0,29.15,West,270,8.1,8.1,46,0.00,CLR,,0.00,WeatherDisplay:10.37,2013-12-23 21:58:00,
2013-12-23 16:00:00,7.2,-9.3,29.15,WSW,248,5.8,5.8,46,0.00,CLR,,0.00,WeatherDisplay:10.37,2013-12-23 22:00:00,
2013-12-23 16:01:00,7.2,-9.3,29.15,WNW,292,4.6,4.6,46,0.00,CLR,,0.00,WeatherDisplay:10.37,2013-12-23 22:01:00,
2013-12-23 16:02:00,7.2,-9.3,29.15,South,180,5.6,5.6,46,0.00,CLR,,0.00,WeatherDisplay:10.37,2013-12-23 22:02:00,
2013-12-23 16:03:00,7.2,-9.3,29.15,WNW,292,7.8,7.8,46,0.00,CLR,,0.00,WeatherDisplay:10.37,2013-12-23 22:03:00,
2013-12-23 16:05:00,7.0,-9.5,29.15,West,270,4.6,4.6,46,0.00,CLR,,0.00,WeatherDisplay:10.37,2013-12-23 22:05:00,
2013-12-23 16:06:00,6.8,-9.6,29.15,NW,315,6.9,6.9,46,0.00,CLR,,0.00,WeatherDisplay:10.37,2013-12-23 22:06:00,
2013-12-23 16:07:00,6.8,-9.6,29.15,West,270,9.2,9.2,46,0.00,CLR,,0.00,WeatherDisplay:10.37,2013-12-23 22:07:00,
2013-12-23 16:09:00,6.6,-9.8,29.15,WNW,292,9.2,9.2,46,0.00,CLR,,0.00,WeatherDisplay:10.37,2013-12-23 22:09:00,
2013-12-23 16:10:00,6.4,-10.0,29.15,WNW,292,6.9,6.9,46,0.00,CLR,,0.00,WeatherDisplay:10.37,2013-12-23 22:10:00,
2013-12-23 16:11:00,6.3,-10.1,29.15,West,270,5.8,6.2,46,0.00,CLR,,0.00,WeatherDisplay:10.37,2013-12-23 22:11:00,
2013-12-23 16:12:00,6.3,-10.1,29.15,WNW,292,8.1,8.1,46,0.00,CLR,,0.00,WeatherDisplay:10.37,2013-12-23 22:12:00,
2013-12-23 16:13:00,6.1,-10.3,29.15,WNW,292,8.1,8.1,46,0.00,CLR,,0.00,WeatherDisplay:10.37,2013-12-23 22:13:00,
2013-12-23 16:14:00,6.1,-10.3,29.15,WSW,248,3.5,3.6,46,0.00,CLR,,0.00,WeatherDisplay:10.37,2013-12-23 22:14:00,
2013-12-23 16:15:00,6.1,-10.3,29.15,West,270,2.4,2.4,46,0.00,CLR,,0.00,WeatherDisplay:10.37,2013-12-23 22:15:00,
2013-12-23 16:16:00,5.9,-10.5,29.15,WNW,292,3.5,3.5,46,0.00,CLR,,0.00,WeatherDisplay:10.37,2013-12-23 22:16:00,
2013-12-23 16:18:00,5.7,-10.6,29.15,West,270,5.8,5.8,46,0.00,CLR,,0.00,WeatherDisplay:10.37,2013-12-23 22:18:00,
2013-12-23 16:19:00,5.7,-10.6,29.15,SW,225,5.8,5.8,46,0.00,CLR,,0.00,WeatherDisplay:10.37,2013-12-23 22:19:00,
2013-12-23 16:20:00,5.7,-10.6,29.15,NW,315,3.5,3.5,46,0.00,CLR,,0.00,WeatherDisplay:10.37,2013-12-23 22:20:00,
2013-12-23 16:21:00,5.5,-10.8,29.15,WNW,292,4.6,4.6,46,0.00,CLR,,0.00,WeatherDisplay:10.37,2013-12-23 22:21:00,
2013-12-23 16:23:00,5.4,-11.0,29.15,West,270,8.1,8.1,46,0.00,CLR,,0.00,WeatherDisplay:10.37,2013-12-23 22:23:00,
2013-12-23 16:24:00,5.4,-11.0,29.15,WNW,292,5.9,5.9,46,0.00,CLR,,0.00,WeatherDisplay:10.37,2013-12-23 22:24:00,
2013-12-23 16:25:00,5.2,-11.1,29.15,West,270,8.1,8.1,46,0.00,CLR,,0.00,WeatherDisplay:10.37,2013-12-23 22:25:00,
2013-12-23 16:26:00,5.2,-11.1,29.15,West,270,8.1,8.1,46,0.00,CLR,,0.00,WeatherDisplay:10.37,2013-12-23 22:26:00,
2013-12-23 16:28:00,5.0,-11.3,29.15,West,270,8.1,8.1,46,0.00,CLR,,0.00,WeatherDisplay:10.37,2013-12-23 22:28:00,
2013-12-23 16:29:00,4.8,-11.5,29.15,WNW,292,6.9,6.9,46,0.00,CLR,,0.00,WeatherDisplay:10.37,2013-12-23 22:29:00,
2013-12-23 16:31:00,4.6,-11.6,29.15,NW,315,8.7,8.7,46,0.00,CLR,,0.00,WeatherDisplay:10.37,2013-12-23 22:31:00,
2013-12-23 16:33:00,4.5,-11.8,29.15,WNW,292,8.1,8.1,46,0.00,CLR,,0.00,WeatherDisplay:10.37,2013-12-23 22:33:00,
2013-12-23 16:34:00,4.5,-11.8,29.15,West,270,8.1,8.1,46,0.00,CLR,,0.00,WeatherDisplay:10.37,2013-12-23 22:34:00,
2013-12-23 16:36:00,4.5,-11.8,29.15,NNW,338,8.1,8.1,46,0.00,CLR,,0.00,WeatherDisplay:10.37,2013-12-23 22:36:00,
2013-12-23 16:38:00,4.1,-12.1,29.15,West,270,9.2,9.2,46,0.00,CLR,,0.00,WeatherDisplay:10.37,2013-12-23 22:38:00,
2013-12-23 16:39:00,4.1,-12.1,29.15,NNW,338,8.1,8.1,46,0.00,CLR,,0.00,WeatherDisplay:10.37,2013-12-23 22:39:00,
2013-12-23 16:41:00,4.1,-12.1,29.15,NW,315,9.2,9.2,46,0.00,CLR,,0.00,WeatherDisplay:10.37,2013-12-23 22:41:00,
2013-12-23 16:43:00,4.1,-12.1,29.15,NW,315,6.9,6.9,46,0.00,CLR,,0.00,WeatherDisplay:10.37,2013-12-23 22:43:00,
2013-12-23 16:45:00,3.9,-12.3,29.15,NW,315,4.6,4.6,46,0.00,CLR,,0.00,WeatherDisplay:10.37,2013-12-23 22:45:00,
2013-12-23 16:46:00,3.9,-12.3,29.15,NW,315,4.9,4.9,46,0.00,CLR,,0.00,WeatherDisplay:10.37,2013-12-23 22:46:00,
2013-12-23 16:47:00,3.9,-12.3,29.15,NNW,338,5.8,5.8,46,0.00,CLR,,0.00,WeatherDisplay:10.37,2013-12-23 22:47:00,
2013-12-23 16:48:00,3.7,-12.5,29.15,NNW,338,6.9,6.9,46,0.00,CLR,,0.00,WeatherDisplay:10.37,2013-12-23 22:48:00,
2013-12-23 16:50:00,3.7,-12.5,29.15,NNW,338,8.1,8.1,46,0.00,CLR,,0.00,WeatherDisplay:10.37,2013-12-23 22:50:00,
2013-12-23 16:51:00,3.7,-12.5,29.15,WSW,248,5.8,5.8,46,0.00,CLR,,0.00,WeatherDisplay:10.37,2013-12-23 22:51:00,
2013-12-23 16:52:00,3.7,-12.5,29.15,WSW,248,5.9,5.9,46,0.00,CLR,,0.00,WeatherDisplay:10.37,2013-12-23 22:52:00,
2013-12-23 16:54:00,3.7,-12.5,29.15,WNW,292,5.8,5.8,46,0.00,CLR,,0.00,WeatherDisplay:10.37,2013-12-23 22:54:00,
2013-12-23 16:55:00,3.6,-12.6,29.15,WNW,292,6.0,6.0,46,0.00,CLR,,0.00,WeatherDisplay:10.37,2013-12-23 22:55:00,
2013-12-23 16:56:00,3.4,-12.8,29.15,West,270,5.8,5.8,46,0.00,CLR,,0.00,WeatherDisplay:10.37,2013-12-23 22:56:00,
2013-12-23 16:57:00,3.4,-12.8,29.15,WSW,248,5.9,5.9,46,0.00,CLR,,0.00,WeatherDisplay:10.37,2013-12-23 22:57:00,
2013-12-23 16:59:00,3.4,-12.8,29.15,WNW,292,3.5,3.5,46,0.00,CLR,,0.00,WeatherDisplay:10.37,2013-12-23 22:59:00,
2013-12-23 17:00:00,3.4,-12.8,29.15,West,270,3.5,3.5,46,0.00,CLR,,0.00,WeatherDisplay:10.37,2013-12-23 23:00:00,
2013-12-23 17:01:00,3.4,-12.8,29.15,WNW,292,3.8,3.8,46,0.00,CLR,,0.00,WeatherDisplay:10.37,2013-12-23 23:01:00,
2013-12-23 17:02:00,3.4,-12.8,29.15,West,270,6.9,6.9,46,0.00,CLR,,0.00,WeatherDisplay:10.37,2013-12-23 23:02:00,
2013-12-23 17:03:00,3.2,-13.0,29.15,WNW,292,6.9,6.9,46,0.00,CLR,,0.00,WeatherDisplay:10.37,2013-12-23 23:03:00,
2013-12-23 17:04:00,3.2,-13.0,29.15,WNW,292,5.8,5.8,46,0.00,CLR,,0.00,WeatherDisplay:10.37,2013-12-23 23:04:00,
2013-12-23 17:05:00,3.2,-13.0,29.15,West,270,5.8,5.8,46,0.00,CLR,,0.00,WeatherDisplay:10.37,2013-12-23 23:05:00,
2013-12-23 17:06:00,3.2,-13.0,29.15,WSW,248,4.6,4.6,46,0.00,CLR,,0.00,WeatherDisplay:10.37,2013-12-23 23:06:00,
2013-12-23 17:07:00,3.2,-13.0,29.15,West,270,6.2,6.2,46,0.00,CLR,,0.00,WeatherDisplay:10.37,2013-12-23 23:07:00,
2013-12-23 17:08:00,3.0,-13.1,29.15,NW,315,8.1,8.1,46,0.00,CLR,,0.00,WeatherDisplay:10.37,2013-12-23 23:08:00,
2013-12-23 17:10:00,3.0,-13.1,29.18,WNW,292,4.6,4.6,46,0.00,CLR,,0.00,WeatherDisplay:10.37,2013-12-23 23:10:00,
2013-12-23 17:11:00,3.0,-13.1,29.18,WNW,292,5.8,5.8,46,0.00,CLR,,0.00,WeatherDisplay:10.37,2013-12-23 23:11:00,
2013-12-23 17:12:00,2.8,-13.3,29.18,WNW,292,7.4,7.4,46,0.00,CLR,,0.00,WeatherDisplay:10.37,2013-12-23 23:12:00,
2013-12-23 17:13:00,2.8,-13.3,29.18,WNW,292,6.9,6.9,46,0.00,CLR,,0.00,WeatherDisplay:10.37,2013-12-23 23:13:00,
2013-12-23 17:15:00,2.8,-13.3,29.18,WNW,292,8.1,8.1,46,0.00,CLR,,0.00,WeatherDisplay:10.37,2013-12-23 23:15:00,
2013-12-23 17:16:00,2.8,-13.3,29.18,West,270,6.9,6.9,46,0.00,CLR,,0.00,WeatherDisplay:10.37,2013-12-23 23:16:00,
2013-12-23 17:17:00,2.8,-13.3,29.18,NW,315,7.4,7.4,46,0.00,CLR,,0.00,WeatherDisplay:10.37,2013-12-23 23:17:00,
2013-12-23 17:18:00,2.8,-13.3,29.18,WNW,292,6.9,6.9,46,0.00,CLR,,0.00,WeatherDisplay:10.37,2013-12-23 23:18:00,
2013-12-23 17:19:00,2.8,-13.3,29.18,West,270,3.6,3.6,46,0.00,CLR,,0.00,WeatherDisplay:10.37,2013-12-23 23:19:00,
2013-12-23 17:20:00,2.7,-13.5,29.18,NW,315,6.2,6.2,46,0.00,CLR,,0.00,WeatherDisplay:10.37,2013-12-23 23:20:00,
2013-12-23 17:21:00,2.7,-13.5,29.18,West,270,9.2,9.2,46,0.00,CLR,,0.00,WeatherDisplay:10.37,2013-12-23 23:21:00,
2013-12-23 17:22:00,2.7,-13.5,29.18,WNW,292,6.9,6.9,46,0.00,CLR,,0.00,WeatherDisplay:10.37,2013-12-23 23:22:00,
2013-12-23 17:23:00,2.5,-13.6,29.18,West,270,8.1,8.1,46,0.00,CLR,,0.00,WeatherDisplay:10.37,2013-12-23 23:23:00,
2013-12-23 17:24:00,2.5,-13.6,29.18,West,270,8.1,8.1,46,0.00,CLR,,0.00,WeatherDisplay:10.37,2013-12-23 23:24:00,
2013-12-23 17:25:00,2.5,-13.6,29.20,WNW,292,8.1,8.1,46,0.00,CLR,,0.00,WeatherDisplay:10.37,2013-12-23 23:25:00,
2013-12-23 17:26:00,2.5,-13.6,29.20,NW,315,8.5,8.5,46,0.00,CLR,,0.00,WeatherDisplay:10.37,2013-12-23 23:26:00,
2013-12-23 17:28:00,2.5,-13.6,29.20,NW,315,8.1,8.1,46,0.00,CLR,,0.00,WeatherDisplay:10.37,2013-12-23 23:28:00,
2013-12-23 17:29:00,2.5,-13.6,29.20,WNW,292,6.9,6.9,46,0.00,CLR,,0.00,WeatherDisplay:10.37,2013-12-23 23:29:00,
2013-12-23 17:30:00,2.5,-13.6,29.20,NNW,338,5.8,5.8,46,0.00,CLR,,0.00,WeatherDisplay:10.37,2013-12-23 23:30:00,
2013-12-23 17:31:00,2.5,-13.6,29.20,NW,315,5.8,5.8,46,0.00,CLR,,0.00,WeatherDisplay:10.37,2013-12-23 23:31:00,
2013-12-23 17:32:00,2.5,-13.6,29.20,NW,315,5.8,5.8,46,0.00,CLR,,0.00,WeatherDisplay:10.37,2013-12-23 23:32:00,
2013-12-23 17:33:00,2.5,-13.6,29.20,NNW,338,6.0,6.0,46,0.00,CLR,,0.00,WeatherDisplay:10.37,2013-12-23 23:33:00,
2013-12-23 17:34:00,2.3,-13.8,29.20,WNW,292,8.1,8.1,46,0.00,CLR,,0.00,WeatherDisplay:10.37,2013-12-23 23:34:00,
2013-12-23 17:36:00,2.3,-13.8,29.20,NW,315,6.9,6.9,46,0.00,CLR,,0.00,WeatherDisplay:10.37,2013-12-23 23:36:00,
2013-12-23 17:37:00,2.3,-13.8,29.20,North,0,5.8,5.8,46,0.00,CLR,,0.00,WeatherDisplay:10.37,2013-12-23 23:37:00,
2013-12-23 17:38:00,2.3,-13.8,29.20,NW,315,5.8,5.8,46,0.00,CLR,,0.00,WeatherDisplay:10.37,2013-12-23 23:38:00,
2013-12-23 17:39:00,2.1,-14.0,29.20,WNW,292,5.9,5.9,46,0.00,CLR,,0.00,WeatherDisplay:10.37,2013-12-23 23:39:00,
2013-12-23 17:40:00,2.1,-14.0,29.20,West,270,6.9,6.9,46,0.00,CLR,,0.00,WeatherDisplay:10.37,2013-12-23 23:40:00,
2013-12-23 17:42:00,2.1,-14.0,29.20,WNW,292,8.1,8.1,46,0.00,CLR,,0.00,WeatherDisplay:10.37,2013-12-23 23:42:00,
2013-12-23 17:43:00,2.1,-14.0,29.20,WNW,292,4.9,4.9,46,0.00,CLR,,0.00,WeatherDisplay:10.37,2013-12-23 23:43:00,
2013-12-23 17:44:00,2.1,-14.0,29.20,WNW,292,8.1,8.1,46,0.00,CLR,,0.00,WeatherDisplay:10.37,2013-12-23 23:44:00,
2013-12-23 17:45:00,2.1,-14.0,29.20,NNW,338,8.1,8.1,46,0.00,CLR,,0.00,WeatherDisplay:10.37,2013-12-23 23:45:00,
2013-12-23 17:47:00,1.9,-14.1,29.20,WNW,292,5.8,5.8,46,0.00,CLR,,0.00,WeatherDisplay:10.37,2013-12-23 23:47:00,
2013-12-23 17:48:00,1.9,-14.1,29.20,West,270,5.4,5.4,46,0.00,CLR,,0.00,WeatherDisplay:10.37,2013-12-23 23:48:00,
2013-12-23 17:49:00,1.9,-14.1,29.20,West,270,5.9,5.9,46,0.00,CLR,,0.00,WeatherDisplay:10.37,2013-12-23 23:49:00,
2013-12-23 17:50:00,1.9,-14.1,29.20,West,270,7.4,7.4,46,0.00,CLR,,0.00,WeatherDisplay:10.37,2013-12-23 23:50:00,
2013-12-23 17:52:00,1.9,-14.1,29.20,WNW,292,6.9,6.9,46,0.00,CLR,,0.00,WeatherDisplay:10.37,2013-12-23 23:52:00,
2013-12-23 17:53:00,1.9,-14.1,29.20,West,270,5.8,5.8,46,0.00,CLR,,0.00,WeatherDisplay:10.37,2013-12-23 23:53:00,
2013-12-23 17:54:00,1.9,-14.1,29.18,NNW,338,5.6,5.6,46,0.00,CLR,,0.00,WeatherDisplay:10.37,2013-12-23 23:54:00,
2013-12-23 17:55:00,1.9,-14.1,29.18,WNW,292,6.9,6.9,46,0.00,CLR,,0.00,WeatherDisplay:10.37,2013-12-23 23:55:00,
2013-12-23 17:57:00,1.9,-14.1,29.18,NNW,338,5.8,5.8,46,0.00,CLR,,0.00,WeatherDisplay:10.37,2013-12-23 23:57:00,
2013-12-23 17:58:00,1.9,-14.1,29.18,WNW,292,5.8,5.8,46,0.00,CLR,,0.00,WeatherDisplay:10.37,2013-12-23 23:58:00,
2013-12-23 18:00:00,1.9,-14.1,29.18,NNW,338,8.1,8.1,46,0.00,CLR,,0.00,WeatherDisplay:10.37,2013-12-24 00:00:00,
2013-12-23 18:01:00,1.9,-14.1,29.18,WNW,292,8.1,8.1,46,0.00,CLR,,0.00,WeatherDisplay:10.37,2013-12-24 00:01:00,
2013-12-23 18:02:00,1.9,-14.1,29.18,West,270,6.2,6.2,46,0.00,CLR,,0.00,WeatherDisplay:10.37,2013-12-24 00:02:00,
2013-12-23 18:03:00,1.9,-14.1,29.18,WNW,292,5.8,5.8,46,0.00,CLR,,0.00,WeatherDisplay:10.37,2013-12-24 00:03:00,
2013-12-23 18:05:00,1.8,-14.3,29.18,WNW,292,8.1,8.1,46,0.00,CLR,,0.00,WeatherDisplay:10.37,2013-12-24 00:05:00,
2013-12-23 18:06:00,1.8,-14.3,29.18,WNW,292,4.7,4.7,46,0.00,CLR,,0.00,WeatherDisplay:10.37,2013-12-24 00:06:00,
2013-12-23 18:07:00,1.8,-14.3,29.18,West,270,5.8,5.8,46,0.00,CLR,,0.00,WeatherDisplay:10.37,2013-12-24 00:07:00,
2013-12-23 18:08:00,1.8,-14.3,29.18,WSW,248,5.8,5.8,46,0.00,CLR,,0.00,WeatherDisplay:10.37,2013-12-24 00:08:00,
2013-12-23 18:11:00,1.8,-14.3,29.18,WNW,292,4.6,4.6,46,0.00,CLR,,0.00,WeatherDisplay:10.37,2013-12-24 00:11:00,
2013-12-23 18:13:00,1.8,-14.3,29.18,NW,315,6.0,6.0,46,0.00,CLR,,0.00,WeatherDisplay:10.37,2013-12-24 00:13:00,
2013-12-23 18:14:00,1.6,-14.5,29.18,NNW,338,5.8,5.8,46,0.00,CLR,,0.00,WeatherDisplay:10.37,2013-12-24 00:14:00,
2013-12-23 18:16:00,1.6,-14.5,29.18,WNW,292,5.8,5.8,46,0.00,CLR,,0.00,WeatherDisplay:10.37,2013-12-24 00:16:00,
2013-12-23 18:17:00,1.6,-14.5,29.18,NW,315,5.8,5.8,46,0.00,CLR,,0.00,WeatherDisplay:10.37,2013-12-24 00:17:00,
2013-12-23 18:18:00,1.6,-14.5,29.18,West,270,4.0,4.0,46,0.00,CLR,,0.00,WeatherDisplay:10.37,2013-12-24 00:18:00,
2013-12-23 18:19:00,1.6,-14.5,29.18,WNW,292,8.1,8.1,46,0.00,CLR,,0.00,WeatherDisplay:10.37,2013-12-24 00:19:00,
2013-12-23 18:21:00,1.6,-14.5,29.18,West,270,5.8,5.8,46,0.00,CLR,,0.00,WeatherDisplay:10.37,2013-12-24 00:21:00,
2013-12-23 18:22:00,1.6,-14.5,29.18,NW,315,5.8,5.8,46,0.00,CLR,,0.00,WeatherDisplay:10.37,2013-12-24 00:22:00,
2013-12-23 18:24:00,1.6,-14.5,29.18,WNW,292,5.8,5.8,46,0.00,CLR,,0.00,WeatherDisplay:10.37,2013-12-24 00:24:00,
2013-12-23 18:25:00,1.6,-14.5,29.20,West,270,5.8,5.8,46,0.00,CLR,,0.00,WeatherDisplay:10.37,2013-12-24 00:25:00,
2013-12-23 18:26:00,1.6,-14.5,29.20,West,270,5.8,5.8,46,0.00,CLR,,0.00,WeatherDisplay:10.37,2013-12-24 00:26:00,
2013-12-23 18:27:00,1.6,-14.5,29.20,WNW,292,4.9,4.9,46,0.00,CLR,,0.00,WeatherDisplay:10.37,2013-12-24 00:27:00,
2013-12-23 18:29:00,1.6,-14.5,29.20,West,270,4.6,4.6,46,0.00,CLR,,0.00,WeatherDisplay:10.37,2013-12-24 00:29:00,
2013-12-23 18:30:00,1.6,-14.5,29.20,WSW,248,5.8,5.8,46,0.00,CLR,,0.00,WeatherDisplay:10.37,2013-12-24 00:30:00,
2013-12-23 18:31:00,1.4,-14.6,29.20,WNW,292,6.9,6.9,46,0.00,CLR,,0.00,WeatherDisplay:10.37,2013-12-24 00:31:00,
2013-12-23 18:32:00,1.4,-14.6,29.20,West,270,8.1,8.1,46,0.00,CLR,,0.00,WeatherDisplay:10.37,2013-12-24 00:32:00,
2013-12-23 18:34:00,1.4,-14.6,29.20,West,270,4.6,4.6,46,0.00,CLR,,0.00,WeatherDisplay:10.37,2013-12-24 00:34:00,
2013-12-23 18:35:00,1.4,-14.6,29.20,NW,315,8.7,8.7,46,0.00,CLR,,0.00,WeatherDisplay:10.37,2013-12-24 00:35:00,
2013-12-23 18:36:00,1.4,-14.6,29.20,NNW,338,9.2,9.2,46,0.00,CLR,,0.00,WeatherDisplay:10.37,2013-12-24 00:36:00,
2013-12-23 18:37:00,1.4,-14.6,29.20,NW,315,4.6,4.6,46,0.00,CLR,,0.00,WeatherDisplay:10.37,2013-12-24 00:37:00,
2013-12-23 18:39:00,1.4,-14.6,29.20,West,270,4.6,4.6,46,0.00,CLR,,0.00,WeatherDisplay:10.37,2013-12-24 00:39:00,
2013-12-23 18:40:00,1.4,-14.6,29.20,West,270,5.6,5.6,46,0.00,CLR,,0.00,WeatherDisplay:10.37,2013-12-24 00:40:00,
2013-12-23 18:41:00,1.4,-14.6,29.20,WNW,292,5.8,5.8,46,0.00,CLR,,0.00,WeatherDisplay:10.37,2013-12-24 00:41:00,
2013-12-23 18:42:00,1.4,-14.6,29.20,WNW,292,5.9,5.9,46,0.00,CLR,,0.00,WeatherDisplay:10.37,2013-12-24 00:42:00,
2013-12-23 18:43:00,1.4,-14.6,29.20,West,270,9.2,9.2,46,0.00,CLR,,0.00,WeatherDisplay:10.37,2013-12-24 00:43:00,
2013-12-23 18:44:00,1.4,-14.6,29.20,WNW,292,5.8,5.8,46,0.00,CLR,,0.00,WeatherDisplay:10.37,2013-12-24 00:44:00,
2013-12-23 18:46:00,1.2,-14.8,29.20,WNW,292,9.2,9.2,46,0.00,CLR,,0.00,WeatherDisplay:10.37,2013-12-24 00:46:00,
2013-12-23 18:47:00,1.2,-14.8,29.20,WSW,248,9.2,9.2,46,0.00,CLR,,0.00,WeatherDisplay:10.37,2013-12-24 00:47:00,
2013-12-23 18:48:00,1.2,-14.8,29.20,NNW,338,8.1,8.1,46,0.00,CLR,,0.00,WeatherDisplay:10.37,2013-12-24 00:48:00,
2013-12-23 18:50:00,1.2,-14.8,29.20,NW,315,5.8,5.8,46,0.00,CLR,,0.00,WeatherDisplay:10.37,2013-12-24 00:50:00,
2013-12-23 18:51:00,1.4,-14.6,29.20,NNW,338,4.9,4.9,46,0.00,CLR,,0.00,WeatherDisplay:10.37,2013-12-24 00:51:00,
2013-12-23 18:52:00,1.2,-14.8,29.20,West,270,5.8,5.8,46,0.00,CLR,,0.00,WeatherDisplay:10.37,2013-12-24 00:52:00,
2013-12-23 18:53:00,1.2,-14.8,29.20,NW,315,5.8,5.8,46,0.00,CLR,,0.00,WeatherDisplay:10.37,2013-12-24 00:53:00,
2013-12-23 18:54:00,1.2,-14.8,29.20,NW,315,3.5,3.5,46,0.00,CLR,,0.00,WeatherDisplay:10.37,2013-12-24 00:54:00,
2013-12-23 18:55:00,1.2,-14.8,29.18,WNW,292,3.8,3.8,46,0.00,CLR,,0.00,WeatherDisplay:10.37,2013-12-24 00:55:00,
2013-12-23 18:56:00,1.2,-14.8,29.18,WNW,292,5.8,5.8,46,0.00,CLR,,0.00,WeatherDisplay:10.37,2013-12-24 00:56:00,
2013-12-23 18:57:00,1.2,-14.8,29.18,WNW,292,5.8,5.8,46,0.00,CLR,,0.00,WeatherDisplay:10.37,2013-12-24 00:57:00,
2013-12-23 18:58:00,1.2,-14.8,29.18,WNW,292,4.6,4.6,46,0.00,CLR,,0.00,WeatherDisplay:10.37,2013-12-24 00:58:00,
2013-12-23 18:59:00,1.2,-14.8,29.18,NW,315,4.6,4.6,46,0.00,CLR,,0.00,WeatherDisplay:10.37,2013-12-24 00:59:00,
2013-12-23 19:00:00,1.2,-14.8,29.18,WNW,292,6.0,6.0,46,0.00,CLR,,0.00,WeatherDisplay:10.37,2013-12-24 01:00:00,
2013-12-23 19:01:00,1.2,-14.8,29.18,WNW,292,5.8,5.8,46,0.00,CLR,,0.00,WeatherDisplay:10.37,2013-12-24 01:01:00,
2013-12-23 19:02:00,1.2,-14.8,29.18,WNW,292,4.6,4.6,46,0.00,CLR,,0.00,WeatherDisplay:10.37,2013-12-24 01:02:00,
2013-12-23 19:04:00,1.2,-14.8,29.18,NNW,338,5.8,5.8,46,0.00,CLR,,0.00,WeatherDisplay:10.37,2013-12-24 01:04:00,
2013-12-23 19:05:00,1.2,-14.8,29.18,WNW,292,4.6,4.6,46,0.00,CLR,,0.00,WeatherDisplay:10.37,2013-12-24 01:05:00,
2013-12-23 19:07:00,1.2,-14.8,29.18,West,270,6.9,6.9,46,0.00,CLR,,0.00,WeatherDisplay:10.37,2013-12-24 01:07:00,
2013-12-23 19:08:00,1.2,-14.8,29.18,WNW,292,4.7,4.7,46,0.00,CLR,,0.00,WeatherDisplay:10.37,2013-12-24 01:08:00,
2013-12-23 19:09:00,1.2,-14.8,29.18,NW,315,4.6,4.6,46,0.00,CLR,,0.00,WeatherDisplay:10.37,2013-12-24 01:09:00,
2013-12-23 19:10:00,1.2,-14.8,29.20,NW,315,3.5,3.5,46,0.00,CLR,,0.00,WeatherDisplay:10.37,2013-12-24 01:10:00,
2013-12-23 19:12:00,1.2,-14.8,29.20,WNW,292,5.8,5.8,46,0.00,CLR,,0.00,WeatherDisplay:10.37,2013-12-24 01:12:00,
2013-12-23 19:13:00,1.2,-14.8,29.20,WNW,292,5.8,5.8,46,0.00,CLR,,0.00,WeatherDisplay:10.37,2013-12-24 01:13:00,
2013-12-23 19:14:00,1.2,-14.8,29.20,NW,315,4.6,4.6,46,0.00,CLR,,0.00,WeatherDisplay:10.37,2013-12-24 01:14:00,
2013-12-23 19:15:00,1.2,-14.8,29.20,WNW,292,3.5,3.5,46,0.00,CLR,,0.00,WeatherDisplay:10.37,2013-12-24 01:15:00,
2013-12-23 19:17:00,1.2,-14.8,29.20,WNW,292,4.0,4.0,46,0.00,CLR,,0.00,WeatherDisplay:10.37,2013-12-24 01:17:00,
2013-12-23 19:18:00,1.2,-14.8,29.20,WNW,292,4.6,4.6,46,0.00,CLR,,0.00,WeatherDisplay:10.37,2013-12-24 01:18:00,
2013-12-23 19:19:00,1.2,-14.8,29.20,WNW,292,7.1,7.1,46,0.00,CLR,,0.00,WeatherDisplay:10.37,2013-12-24 01:19:00,
2013-12-23 19:20:00,1.2,-14.8,29.20,West,270,6.9,6.9,46,0.00,CLR,,0.00,WeatherDisplay:10.37,2013-12-24 01:20:00,
2013-12-23 19:22:00,1.0,-15.0,29.20,West,270,5.8,5.8,46,0.00,CLR,,0.00,WeatherDisplay:10.37,2013-12-24 01:22:00,
2013-12-23 19:23:00,1.2,-14.8,29.20,NW,315,4.6,4.6,46,0.00,CLR,,0.00,WeatherDisplay:10.37,2013-12-24 01:23:00,
2013-12-23 19:24:00,1.0,-15.0,29.20,West,270,6.9,6.9,46,0.00,CLR,,0.00,WeatherDisplay:10.37,2013-12-24 01:24:00,
2013-12-23 19:25:00,1.0,-15.0,29.20,WNW,292,6.9,6.9,46,0.00,CLR,,0.00,WeatherDisplay:10.37,2013-12-24 01:25:00,
2013-12-23 19:27:00,1.0,-15.0,29.20,North,0,8.1,8.1,46,0.00,CLR,,0.00,WeatherDisplay:10.37,2013-12-24 01:27:00,
2013-12-23 19:28:00,1.2,-14.8,29.20,West,270,5.8,5.8,46,0.00,CLR,,0.00,WeatherDisplay:10.37,2013-12-24 01:28:00,
2013-12-23 19:30:00,1.2,-14.8,29.20,NNW,338,2.3,2.4,46,0.00,CLR,,0.00,WeatherDisplay:10.37,2013-12-24 01:30:00,
2013-12-23 19:32:00,1.2,-14.8,29.20,NW,315,4.6,4.6,46,0.00,CLR,,0.00,WeatherDisplay:10.37,2013-12-24 01:32:00,
2013-12-23 19:34:00,1.2,-14.8,29.20,NW,315,4.6,4.6,46,0.00,CLR,,0.00,WeatherDisplay:10.37,2013-12-24 01:34:00,
2013-12-23 19:35:00,1.2,-14.8,29.20,West,270,5.8,5.8,46,0.00,CLR,,0.00,WeatherDisplay:10.37,2013-12-24 01:35:00,
2013-12-23 19:36:00,1.2,-14.8,29.20,West,270,5.8,5.8,46,0.00,CLR,,0.00,WeatherDisplay:10.37,2013-12-24 01:36:00,
2013-12-23 19:38:00,1.2,-14.8,29.20,WNW,292,2.9,2.9,46,0.00,CLR,,0.00,WeatherDisplay:10.37,2013-12-24 01:38:00,
2013-12-23 19:39:00,1.2,-14.8,29.20,NNW,338,3.6,3.6,46,0.00,CLR,,0.00,WeatherDisplay:10.37,2013-12-24 01:39:00,
2013-12-23 19:40:00,1.2,-14.8,29.20,WNW,292,5.8,5.8,46,0.00,CLR,,0.00,WeatherDisplay:10.37,2013-12-24 01:40:00,
2013-12-23 19:41:00,1.2,-14.8,29.20,NNW,338,5.8,5.8,46,0.00,CLR,,0.00,WeatherDisplay:10.37,2013-12-24 01:41:00,
2013-12-23 19:43:00,1.0,-15.0,29.20,WNW,292,8.1,8.1,46,0.00,CLR,,0.00,WeatherDisplay:10.37,2013-12-24 01:43:00,
2013-12-23 19:44:00,1.0,-15.0,29.20,NW,315,8.1,8.1,46,0.00,CLR,,0.00,WeatherDisplay:10.37,2013-12-24 01:44:00,
2013-12-23 19:45:00,1.0,-15.0,29.20,West,270,6.9,6.9,46,0.00,CLR,,0.00,WeatherDisplay:10.37,2013-12-24 01:45:00,
2013-12-23 19:46:00,1.0,-15.0,29.20,WNW,292,4.9,4.9,46,0.00,CLR,,0.00,WeatherDisplay:10.37,2013-12-24 01:46:00,
2013-12-23 19:49:00,1.0,-15.0,29.20,WNW,292,5.8,5.8,46,0.00,CLR,,0.00,WeatherDisplay:10.37,2013-12-24 01:49:00,
2013-12-23 19:50:00,1.0,-15.0,29.20,WNW,292,6.9,6.9,46,0.00,CLR,,0.00,WeatherDisplay:10.37,2013-12-24 01:50:00,
2013-12-23 19:51:00,1.0,-15.0,29.20,WNW,292,6.9,6.9,46,0.00,CLR,,0.00,WeatherDisplay:10.37,2013-12-24 01:51:00,
2013-12-23 19:53:00,1.0,-15.0,29.20,North,0,9.2,9.2,46,0.00,CLR,,0.00,WeatherDisplay:10.37,2013-12-24 01:53:00,
2013-12-23 19:54:00,1.0,-15.0,29.20,WNW,292,3.5,3.5,46,0.00,CLR,,0.00,WeatherDisplay:10.37,2013-12-24 01:54:00,
2013-12-23 19:55:00,1.0,-15.0,29.20,West,270,3.6,3.6,46,0.00,CLR,,0.00,WeatherDisplay:10.37,2013-12-24 01:55:00,
2013-12-23 19:56:00,1.0,-15.0,29.20,WNW,292,3.8,4.7,46,0.00,CLR,,0.00,WeatherDisplay:10.37,2013-12-24 01:56:00,
2013-12-23 19:57:00,1.0,-15.0,29.20,NNW,338,5.8,5.8,46,0.00,CLR,,0.00,WeatherDisplay:10.37,2013-12-24 01:57:00,
2013-12-23 19:58:00,1.0,-15.0,29.20,WNW,292,4.6,4.6,46,0.00,CLR,,0.00,WeatherDisplay:10.37,2013-12-24 01:58:00,
2013-12-23 19:59:00,1.0,-15.0,29.20,WNW,292,5.8,5.8,46,0.00,CLR,,0.00,WeatherDisplay:10.37,2013-12-24 01:59:00,
2013-12-23 20:00:00,1.0,-15.0,29.20,WNW,292,5.8,5.8,46,0.00,CLR,,0.00,WeatherDisplay:10.37,2013-12-24 02:00:00,
2013-12-23 20:02:00,1.0,-15.0,29.20,WNW,292,5.8,5.8,46,0.00,CLR,,0.00,WeatherDisplay:10.37,2013-12-24 02:02:00,
2013-12-23 20:04:00,1.0,-15.0,29.20,NW,315,4.6,4.6,46,0.00,CLR,,0.00,WeatherDisplay:10.37,2013-12-24 02:04:00,
2013-12-23 20:05:00,1.0,-15.0,29.20,WNW,292,6.9,6.9,46,0.00,CLR,,0.00,WeatherDisplay:10.37,2013-12-24 02:05:00,
2013-12-23 20:06:00,1.0,-15.0,29.20,WNW,292,5.8,5.8,46,0.00,CLR,,0.00,WeatherDisplay:10.37,2013-12-24 02:06:00,
2013-12-23 20:07:00,1.0,-15.0,29.20,WNW,292,5.8,5.8,46,0.00,CLR,,0.00,WeatherDisplay:10.37,2013-12-24 02:07:00,
2013-12-23 20:09:00,1.0,-15.0,29.20,WNW,292,8.1,8.1,46,0.00,CLR,,0.00,WeatherDisplay:10.37,2013-12-24 02:09:00,
2013-12-23 20:10:00,1.0,-15.0,29.20,NW,315,8.1,8.1,46,0.00,CLR,,0.00,WeatherDisplay:10.37,2013-12-24 02:10:00,
2013-12-23 20:11:00,1.0,-15.0,29.20,WNW,292,5.8,5.8,46,0.00,CLR,,0.00,WeatherDisplay:10.37,2013-12-24 02:11:00,
2013-12-23 20:12:00,1.0,-15.0,29.20,NW,315,3.5,3.5,46,0.00,CLR,,0.00,WeatherDisplay:10.37,2013-12-24 02:12:00,
2013-12-23 20:14:00,1.0,-15.0,29.20,WNW,292,6.9,6.9,46,0.00,CLR,,0.00,WeatherDisplay:10.37,2013-12-24 02:14:00,
2013-12-23 20:16:00,1.0,-15.0,29.20,WNW,292,8.1,8.1,46,0.00,CLR,,0.00,WeatherDisplay:10.37,2013-12-24 02:16:00,
2013-12-23 20:17:00,0.9,-15.1,29.20,NW,315,5.8,5.8,46,0.00,CLR,,0.00,WeatherDisplay:10.37,2013-12-24 02:17:00,
2013-12-23 20:18:00,0.9,-15.1,29.20,West,270,4.6,4.6,46,0.00,CLR,,0.00,WeatherDisplay:10.37,2013-12-24 02:18:00,
2013-12-23 20:19:00,0.9,-15.1,29.20,West,270,5.9,5.9,46,0.00,CLR,,0.00,WeatherDisplay:10.37,2013-12-24 02:19:00,
2013-12-23 20:20:00,0.9,-15.1,29.20,NW,315,5.8,5.8,46,0.00,CLR,,0.00,WeatherDisplay:10.37,2013-12-24 02:20:00,
2013-12-23 20:21:00,0.9,-15.1,29.20,NW,315,5.8,5.8,46,0.00,CLR,,0.00,WeatherDisplay:10.37,2013-12-24 02:21:00,
2013-12-23 20:22:00,0.9,-15.1,29.20,NNW,338,5.8,5.8,46,0.00,CLR,,0.00,WeatherDisplay:10.37,2013-12-24 02:22:00,
2013-12-23 20:23:00,0.9,-15.1,29.20,North,0,5.8,5.8,46,0.00,CLR,,0.00,WeatherDisplay:10.37,2013-12-24 02:23:00,
2013-12-23 20:24:00,0.9,-15.1,29.18,West,270,5.4,5.4,46,0.00,CLR,,0.00,WeatherDisplay:10.37,2013-12-24 02:24:00,
2013-12-23 20:25:00,0.9,-15.1,29.18,West,270,5.8,5.8,46,0.00,CLR,,0.00,WeatherDisplay:10.37,2013-12-24 02:25:00,
2013-12-23 20:26:00,0.9,-15.1,29.18,WNW,292,5.8,5.8,46,0.00,CLR,,0.00,WeatherDisplay:10.37,2013-12-24 02:26:00,
2013-12-23 20:28:00,0.9,-15.1,29.18,NNW,338,5.8,5.8,46,0.00,CLR,,0.00,WeatherDisplay:10.37,2013-12-24 02:28:00,
2013-12-23 20:29:00,0.9,-15.1,29.18,NW,315,7.8,7.8,46,0.00,CLR,,0.00,WeatherDisplay:10.37,2013-12-24 02:29:00,
2013-12-23 20:30:00,0.9,-15.1,29.18,NNW,338,8.1,8.1,46,0.00,CLR,,0.00,WeatherDisplay:10.37,2013-12-24 02:30:00,
2013-12-23 20:31:00,0.9,-15.1,29.18,NNW,338,8.1,8.1,46,0.00,CLR,,0.00,WeatherDisplay:10.37,2013-12-24 02:31:00,
2013-12-23 20:32:00,0.9,-15.1,29.18,NW,315,4.6,4.6,46,0.00,CLR,,0.00,WeatherDisplay:10.37,2013-12-24 02:32:00,
2013-12-23 20:33:00,0.9,-15.1,29.18,NNW,338,5.6,5.6,46,0.00,CLR,,0.00,WeatherDisplay:10.37,2013-12-24 02:33:00,
2013-12-23 20:34:00,0.7,-15.3,29.18,WNW,292,6.0,6.0,46,0.00,CLR,,0.00,WeatherDisplay:10.37,2013-12-24 02:34:00,
2013-12-23 20:35:00,0.7,-15.3,29.18,WNW,292,6.9,6.9,46,0.00,CLR,,0.00,WeatherDisplay:10.37,2013-12-24 02:35:00,
2013-12-23 20:36:00,0.7,-15.3,29.18,WNW,292,6.9,6.9,46,0.00,CLR,,0.00,WeatherDisplay:10.37,2013-12-24 02:36:00,
2013-12-23 20:37:00,0.7,-15.3,29.18,NW,315,5.8,5.8,46,0.00,CLR,,0.00,WeatherDisplay:10.37,2013-12-24 02:37:00,
2013-12-23 20:38:00,0.7,-15.3,29.18,WNW,292,5.8,5.8,46,0.00,CLR,,0.00,WeatherDisplay:10.37,2013-12-24 02:38:00,
2013-12-23 20:39:00,0.7,-15.3,29.20,West,270,6.9,6.9,46,0.00,CLR,,0.00,WeatherDisplay:10.37,2013-12-24 02:39:00,
2013-12-23 20:40:00,0.7,-15.3,29.20,NW,315,4.6,4.6,46,0.00,CLR,,0.00,WeatherDisplay:10.37,2013-12-24 02:40:00,
2013-12-23 20:41:00,0.7,-15.3,29.20,NW,315,3.8,3.8,46,0.00,CLR,,0.00,WeatherDisplay:10.37,2013-12-24 02:41:00,
2013-12-23 20:42:00,0.7,-15.3,29.20,NW,315,5.8,5.8,46,0.00,CLR,,0.00,WeatherDisplay:10.37,2013-12-24 02:42:00,
2013-12-23 20:43:00,0.7,-15.3,29.20,WNW,292,5.8,5.8,46,0.00,CLR,,0.00,WeatherDisplay:10.37,2013-12-24 02:43:00,
2013-12-23 20:44:00,0.7,-15.3,29.20,West,270,6.4,6.4,46,0.00,CLR,,0.00,WeatherDisplay:10.37,2013-12-24 02:44:00,
2013-12-23 20:46:00,0.7,-15.3,29.20,WNW,292,6.2,6.2,46,0.00,CLR,,0.00,WeatherDisplay:10.37,2013-12-24 02:46:00,
2013-12-23 20:47:00,0.7,-15.3,29.20,WNW,292,6.9,6.9,46,0.00,CLR,,0.00,WeatherDisplay:10.37,2013-12-24 02:47:00,
2013-12-23 20:48:00,0.7,-15.3,29.20,West,270,5.8,5.8,46,0.00,CLR,,0.00,WeatherDisplay:10.37,2013-12-24 02:48:00,
2013-12-23 20:50:00,0.7,-15.3,29.20,West,270,4.6,4.6,46,0.00,CLR,,0.00,WeatherDisplay:10.37,2013-12-24 02:50:00,
2013-12-23 20:51:00,0.5,-15.5,29.20,WNW,292,5.9,5.9,46,0.00,CLR,,0.00,WeatherDisplay:10.37,2013-12-24 02:51:00,
2013-12-23 20:52:00,0.5,-15.5,29.20,WNW,292,5.8,5.8,46,0.00,CLR,,0.00,WeatherDisplay:10.37,2013-12-24 02:52:00,
2013-12-23 20:54:00,0.5,-15.5,29.20,WNW,292,5.8,5.8,46,0.00,CLR,,0.00,WeatherDisplay:10.37,2013-12-24 02:54:00,
2013-12-23 20:55:00,0.5,-15.5,29.20,WNW,292,3.5,4.0,46,0.00,CLR,,0.00,WeatherDisplay:10.37,2013-12-24 02:55:00,
2013-12-23 20:56:00,0.5,-15.5,29.20,WNW,292,3.6,3.6,46,0.00,CLR,,0.00,WeatherDisplay:10.37,2013-12-24 02:56:00,
2013-12-23 20:57:00,0.5,-15.5,29.20,WSW,248,5.8,5.8,46,0.00,CLR,,0.00,WeatherDisplay:10.37,2013-12-24 02:57:00,
2013-12-23 21:00:00,0.3,-15.6,29.20,WNW,292,5.8,5.8,46,0.00,CLR,,0.00,WeatherDisplay:10.37,2013-12-24 03:00:00,
2013-12-23 21:01:00,0.3,-15.6,29.20,WNW,292,3.5,3.5,46,0.00,CLR,,0.00,WeatherDisplay:10.37,2013-12-24 03:01:00,
2013-12-23 21:02:00,0.3,-15.6,29.20,West,270,4.6,4.6,46,0.00,CLR,,0.00,WeatherDisplay:10.37,2013-12-24 03:02:00,
2013-12-23 21:03:00,0.3,-15.6,29.20,West,270,5.8,5.8,46,0.00,CLR,,0.00,WeatherDisplay:10.37,2013-12-24 03:03:00,
2013-12-23 21:05:00,0.3,-15.6,29.20,West,270,4.6,4.6,46,0.00,CLR,,0.00,WeatherDisplay:10.37,2013-12-24 03:05:00,
2013-12-23 21:07:00,0.1,-15.8,29.20,NW,315,4.6,4.6,46,0.00,CLR,,0.00,WeatherDisplay:10.37,2013-12-24 03:07:00,
2013-12-23 21:08:00,0.1,-15.8,29.20,NW,315,3.5,3.5,46,0.00,CLR,,0.00,WeatherDisplay:10.37,2013-12-24 03:08:00,
2013-12-23 21:11:00,0.0,-16.0,29.20,WNW,292,5.6,5.6,46,0.00,CLR,,0.00,WeatherDisplay:10.37,2013-12-24 03:11:00,
2013-12-23 21:12:00,0.0,-16.0,29.20,NW,315,5.8,5.8,46,0.00,CLR,,0.00,WeatherDisplay:10.37,2013-12-24 03:12:00,
2013-12-23 21:13:00,0.0,-16.0,29.20,WNW,292,3.5,3.5,46,0.00,CLR,,0.00,WeatherDisplay:10.37,2013-12-24 03:13:00,
2013-12-23 21:16:00,0.0,-16.0,29.20,WNW,292,5.8,5.8,46,0.00,CLR,,0.00,WeatherDisplay:10.37,2013-12-24 03:16:00,
2013-12-23 21:17:00,0.0,-16.0,29.20,WNW,292,5.8,5.8,46,0.00,CLR,,0.00,WeatherDisplay:10.37,2013-12-24 03:17:00,
2013-12-23 21:18:00,-0.2,-16.1,29.20,NW,315,3.5,3.5,46,0.00,CLR,,0.00,WeatherDisplay:10.37,2013-12-24 03:18:00,
2013-12-23 21:21:00,-0.4,-16.3,29.20,WNW,292,6.0,6.0,46,0.00,CLR,,0.00,WeatherDisplay:10.37,2013-12-24 03:21:00,
2013-12-23 21:22:00,-0.4,-16.3,29.20,WNW,292,8.1,8.1,46,0.00,CLR,,0.00,WeatherDisplay:10.37,2013-12-24 03:22:00,
2013-12-23 21:23:00,-0.4,-16.3,29.20,NW,315,5.8,5.8,46,0.00,CLR,,0.00,WeatherDisplay:10.37,2013-12-24 03:23:00,
2013-12-23 21:26:00,-0.6,-16.5,29.24,West,270,5.8,5.8,46,0.00,CLR,,0.00,WeatherDisplay:10.37,2013-12-24 03:26:00,
2013-12-23 21:27:00,-0.6,-16.5,29.24,WNW,292,3.5,3.5,46,0.00,CLR,,0.00,WeatherDisplay:10.37,2013-12-24 03:27:00,
2013-12-23 21:28:00,-0.6,-16.5,29.24,WNW,292,3.5,3.5,46,0.00,CLR,,0.00,WeatherDisplay:10.37,2013-12-24 03:28:00,
2013-12-23 21:29:00,-0.8,-16.6,29.24,WNW,292,3.8,3.8,46,0.00,CLR,,0.00,WeatherDisplay:10.37,2013-12-24 03:29:00,
2013-12-23 21:31:00,-0.9,-16.8,29.24,NW,315,6.4,6.4,46,0.00,CLR,,0.00,WeatherDisplay:10.37,2013-12-24 03:31:00,
2013-12-23 21:33:00,-0.9,-16.8,29.24,NW,315,3.5,3.8,46,0.00,CLR,,0.00,WeatherDisplay:10.37,2013-12-24 03:33:00,
2013-12-23 21:34:00,-0.9,-16.8,29.24,WNW,292,3.5,3.5,46,0.00,CLR,,0.00,WeatherDisplay:10.37,2013-12-24 03:34:00,
2013-12-23 21:36:00,-0.9,-16.8,29.24,West,270,4.6,4.6,46,0.00,CLR,,0.00,WeatherDisplay:10.37,2013-12-24 03:36:00,
2013-12-23 21:38:00,-0.9,-16.8,29.24,NW,315,4.6,4.6,46,0.00,CLR,,0.00,WeatherDisplay:10.37,2013-12-24 03:38:00,
2013-12-23 21:39:00,-1.1,-17.0,29.24,WNW,292,4.6,4.6,46,0.00,CLR,,0.00,WeatherDisplay:10.37,2013-12-24 03:39:00,
2013-12-23 21:42:00,-1.1,-17.0,29.20,WNW,292,4.6,4.6,46,0.00,CLR,,0.00,WeatherDisplay:10.37,2013-12-24 03:42:00,
2013-12-23 21:43:00,-1.1,-17.0,29.20,West,270,3.5,3.5,46,0.00,CLR,,0.00,WeatherDisplay:10.37,2013-12-24 03:43:00,
2013-12-23 21:44:00,-1.1,-17.0,29.20,West,270,3.8,3.8,46,0.00,CLR,,0.00,WeatherDisplay:10.37,2013-12-24 03:44:00,
2013-12-23 21:45:00,-1.3,-17.1,29.20,WNW,292,4.3,4.3,46,0.00,CLR,,0.00,WeatherDisplay:10.37,2013-12-24 03:45:00,
2013-12-23 21:47:00,-1.3,-17.1,29.20,WNW,292,4.6,4.6,46,0.00,CLR,,0.00,WeatherDisplay:10.37,2013-12-24 03:47:00,
2013-12-23 21:48:00,-1.3,-17.1,29.20,WNW,292,3.5,3.6,46,0.00,CLR,,0.00,WeatherDisplay:10.37,2013-12-24 03:48:00,
2013-12-23 21:49:00,-1.3,-17.1,29.20,NW,315,5.8,5.8,46,0.00,CLR,,0.00,WeatherDisplay:10.37,2013-12-24 03:49:00,
2013-12-23 21:50:00,-1.5,-17.3,29.20,WNW,292,4.6,4.6,46,0.00,CLR,,0.00,WeatherDisplay:10.37,2013-12-24 03:50:00,
2013-12-23 21:51:00,-1.5,-17.3,29.20,WNW,292,4.6,4.6,46,0.00,CLR,,0.00,WeatherDisplay:10.37,2013-12-24 03:51:00,
2013-12-23 21:52:00,-1.5,-17.3,29.20,WNW,292,3.5,3.5,46,0.00,CLR,,0.00,WeatherDisplay:10.37,2013-12-24 03:52:00,
2013-12-23 21:54:00,-1.7,-17.5,29.20,NW,315,5.8,5.8,46,0.00,CLR,,0.00,WeatherDisplay:10.37,2013-12-24 03:54:00,
2013-12-23 21:55:00,-1.7,-17.5,29.20,WNW,292,4.6,4.6,46,0.00,CLR,,0.00,WeatherDisplay:10.37,2013-12-24 03:55:00,
2013-12-23 21:56:00,-1.8,-17.6,29.20,WNW,292,3.5,3.5,46,0.00,CLR,,0.00,WeatherDisplay:10.37,2013-12-24 03:56:00,
2013-12-23 21:57:00,-1.8,-17.6,29.20,WNW,292,3.6,3.6,46,0.00,CLR,,0.00,WeatherDisplay:10.37,2013-12-24 03:57:00,
2013-12-23 21:59:00,-1.8,-17.6,29.20,WNW,292,4.6,4.6,46,0.00,CLR,,0.00,WeatherDisplay:10.37,2013-12-24 03:59:00,
2013-12-23 22:00:00,-1.8,-17.6,29.20,NW,315,4.6,4.6,46,0.00,CLR,,0.00,WeatherDisplay:10.37,2013-12-24 04:00:00,
2013-12-23 22:01:00,-1.8,-17.6,29.20,WNW,292,4.6,4.6,46,0.00,CLR,,0.00,WeatherDisplay:10.37,2013-12-24 04:01:00,
2013-12-23 22:02:00,-2.0,-17.8,29.20,WNW,292,3.8,3.8,46,0.00,CLR,,0.00,WeatherDisplay:10.37,2013-12-24 04:02:00,
2013-12-23 22:04:00,-2.0,-17.8,29.20,WNW,292,5.8,5.8,46,0.00,CLR,,0.00,WeatherDisplay:10.37,2013-12-24 04:04:00,
2013-12-23 22:05:00,-2.0,-17.8,29.20,WNW,292,5.8,5.8,46,0.00,CLR,,0.00,WeatherDisplay:10.37,2013-12-24 04:05:00,
2013-12-23 22:06:00,-2.0,-17.8,29.20,WNW,292,5.8,5.8,46,0.00,CLR,,0.00,WeatherDisplay:10.37,2013-12-24 04:06:00,
2013-12-23 22:07:00,-2.2,-17.9,29.20,NW,315,3.5,3.5,46,0.00,CLR,,0.00,WeatherDisplay:10.37,2013-12-24 04:07:00,
2013-12-23 22:08:00,-2.2,-17.9,29.20,WNW,292,2.6,2.6,46,0.00,CLR,,0.00,WeatherDisplay:10.37,2013-12-24 04:08:00,
2013-12-23 22:09:00,-2.2,-17.9,29.20,WNW,292,2.3,2.3,46,0.00,CLR,,0.00,WeatherDisplay:10.37,2013-12-24 04:09:00,
2013-12-23 22:10:00,-2.2,-17.9,29.20,WNW,292,2.9,2.9,46,0.00,CLR,,0.00,WeatherDisplay:10.37,2013-12-24 04:10:00,
2013-12-23 22:11:00,-2.2,-17.9,29.20,WSW,248,2.9,2.9,46,0.00,CLR,,0.00,WeatherDisplay:10.37,2013-12-24 04:11:00,
2013-12-23 22:12:00,-2.2,-17.9,29.20,NW,315,4.0,4.3,46,0.00,CLR,,0.00,WeatherDisplay:10.37,2013-12-24 04:12:00,
2013-12-23 22:13:00,-2.2,-17.9,29.20,WNW,292,6.9,6.9,46,0.00,CLR,,0.00,WeatherDisplay:10.37,2013-12-24 04:13:00,
2013-12-23 22:14:00,-2.4,-18.1,29.20,WNW,292,3.6,3.6,46,0.00,CLR,,0.00,WeatherDisplay:10.37,2013-12-24 04:14:00,
2013-12-23 22:15:00,-2.4,-18.1,29.20,WNW,292,3.5,3.5,46,0.00,CLR,,0.00,WeatherDisplay:10.37,2013-12-24 04:15:00,
2013-12-23 22:16:00,-2.4,-18.1,29.20,West,270,2.3,2.6,46,0.00,CLR,,0.00,WeatherDisplay:10.37,2013-12-24 04:16:00,
2013-12-23 22:17:00,-2.6,-18.3,29.20,West,270,4.6,4.6,46,0.00,CLR,,0.00,WeatherDisplay:10.37,2013-12-24 04:17:00,
2013-12-23 22:18:00,-2.6,-18.3,29.20,WNW,292,4.6,4.6,46,0.00,CLR,,0.00,WeatherDisplay:10.37,2013-12-24 04:18:00,
2013-12-23 22:19:00,-2.6,-18.3,29.20,WNW,292,3.5,3.5,46,0.00,CLR,,0.00,WeatherDisplay:10.37,2013-12-24 04:19:00,
2013-12-23 22:20:00,-2.6,-18.3,29.20,West,270,3.5,3.5,46,0.00,CLR,,0.00,WeatherDisplay:10.37,2013-12-24 04:20:00,
2013-12-23 22:21:00,-2.7,-18.4,29.20,WNW,292,2.9,2.9,46,0.00,CLR,,0.00,WeatherDisplay:10.37,2013-12-24 04:21:00,
2013-12-23 22:23:00,-2.9,-18.6,29.20,NW,315,3.5,3.5,46,0.00,CLR,,0.00,WeatherDisplay:10.37,2013-12-24 04:23:00,
2013-12-23 22:24:00,-2.9,-18.6,29.20,NW,315,3.5,3.5,46,0.00,CLR,,0.00,WeatherDisplay:10.37,2013-12-24 04:24:00,
2013-12-23 22:25:00,-3.1,-18.8,29.20,WNW,292,2.9,2.9,46,0.00,CLR,,0.00,WeatherDisplay:10.37,2013-12-24 04:25:00,
2013-12-23 22:26:00,-3.1,-18.8,29.20,NW,315,4.0,4.0,46,0.00,CLR,,0.00,WeatherDisplay:10.37,2013-12-24 04:26:00,
2013-12-23 22:27:00,-3.1,-18.8,29.20,WNW,292,5.4,5.4,46,0.00,CLR,,0.00,WeatherDisplay:10.37,2013-12-24 04:27:00,
2013-12-23 22:29:00,-3.1,-18.8,29.20,WNW,292,3.5,3.5,46,0.00,CLR,,0.00,WeatherDisplay:10.37,2013-12-24 04:29:00,
2013-12-23 22:31:00,-3.1,-18.8,29.20,NNW,338,3.5,3.5,46,0.00,CLR,,0.00,WeatherDisplay:10.37,2013-12-24 04:31:00,
2013-12-23 22:32:00,-3.1,-18.8,29.20,WSW,248,3.5,3.5,46,0.00,CLR,,0.00,WeatherDisplay:10.37,2013-12-24 04:32:00,
2013-12-23 22:34:00,-3.3,-18.9,29.20,West,270,2.4,2.4,46,0.00,CLR,,0.00,WeatherDisplay:10.37,2013-12-24 04:34:00,
2013-12-23 22:35:00,-3.5,-19.1,29.20,NW,315,4.0,4.0,46,0.00,CLR,,0.00,WeatherDisplay:10.37,2013-12-24 04:35:00,
2013-12-23 22:36:00,-3.5,-19.1,29.20,West,270,4.6,4.6,46,0.00,CLR,,0.00,WeatherDisplay:10.37,2013-12-24 04:36:00,
2013-12-23 22:37:00,-3.5,-19.1,29.20,WNW,292,2.4,2.4,46,0.00,CLR,,0.00,WeatherDisplay:10.37,2013-12-24 04:37:00,
2013-12-23 22:39:00,-3.5,-19.1,29.20,WNW,292,3.5,3.5,46,0.00,CLR,,0.00,WeatherDisplay:10.37,2013-12-24 04:39:00,
2013-12-23 22:40:00,-3.5,-19.1,29.24,NW,315,3.5,3.5,46,0.00,CLR,,0.00,WeatherDisplay:10.37,2013-12-24 04:40:00,
2013-12-23 22:41:00,-3.5,-19.1,29.24,WNW,292,4.6,4.6,46,0.00,CLR,,0.00,WeatherDisplay:10.37,2013-12-24 04:41:00,
2013-12-23 22:42:00,-3.5,-19.1,29.24,WNW,292,3.5,3.5,46,0.00,CLR,,0.00,WeatherDisplay:10.37,2013-12-24 04:42:00,
2013-12-23 22:43:00,-3.5,-19.1,29.24,WSW,248,3.5,3.5,46,0.00,CLR,,0.00,WeatherDisplay:10.37,2013-12-24 04:43:00,
2013-12-23 22:44:00,-3.5,-19.1,29.24,WNW,292,3.5,3.5,46,0.00,CLR,,0.00,WeatherDisplay:10.37,2013-12-24 04:44:00,
2013-12-23 22:45:00,-3.5,-19.1,29.24,WNW,290,2.0,5.0,46,0.00,CLR,,0.00,WeatherDisplay:10.37,2013-12-24 04:45:00,
2013-12-23 22:46:00,-3.5,-19.1,29.24,WNW,292,2.6,2.6,46,0.00,CLR,,0.00,WeatherDisplay:10.37,2013-12-24 04:46:00,
2013-12-23 22:48:00,-3.5,-19.1,29.24,WNW,292,3.5,3.5,46,0.00,CLR,,0.00,WeatherDisplay:10.37,2013-12-24 04:48:00,
2013-12-23 22:49:00,-3.6,-19.3,29.24,WNW,292,2.3,2.3,46,0.00,CLR,,0.00,WeatherDisplay:10.37,2013-12-24 04:49:00,
2013-12-23 22:50:00,-3.6,-19.3,29.24,West,270,2.4,2.4,46,0.00,CLR,,0.00,WeatherDisplay:10.37,2013-12-24 04:50:00,
2013-12-23 22:52:00,-3.8,-19.4,29.24,WNW,292,3.5,3.5,46,0.00,CLR,,0.00,WeatherDisplay:10.37,2013-12-24 04:52:00,
2013-12-23 22:53:00,-3.8,-19.4,29.24,WNW,292,2.3,2.3,46,0.00,CLR,,0.00,WeatherDisplay:10.37,2013-12-24 04:53:00,
2013-12-23 22:55:00,-3.8,-19.4,29.24,WNW,292,4.6,4.6,46,0.00,CLR,,0.00,WeatherDisplay:10.37,2013-12-24 04:55:00,
2013-12-23 22:57:00,-3.8,-19.4,29.24,WNW,292,4.6,4.6,46,0.00,CLR,,0.00,WeatherDisplay:10.37,2013-12-24 04:57:00,
2013-12-23 22:58:00,-3.8,-19.4,29.24,West,270,4.6,4.6,46,0.00,CLR,,0.00,WeatherDisplay:10.37,2013-12-24 04:58:00,
2013-12-23 23:00:00,-3.8,-19.4,29.24,WNW,292,3.8,3.8,46,0.00,CLR,,0.00,WeatherDisplay:10.37,2013-12-24 05:00:00,
2013-12-23 23:01:00,-3.8,-19.4,29.24,NNW,338,3.5,3.5,46,0.00,CLR,,0.00,WeatherDisplay:10.37,2013-12-24 05:01:00,
2013-12-23 23:02:00,-4.0,-19.6,29.24,NW,315,3.5,3.5,46,0.00,CLR,,0.00,WeatherDisplay:10.37,2013-12-24 05:02:00,
2013-12-23 23:06:00,-4.0,-19.6,29.24,WNW,292,3.5,3.5,46,0.00,CLR,,0.00,WeatherDisplay:10.37,2013-12-24 05:06:00,
2013-12-23 23:08:00,-4.2,-19.8,29.24,NNW,338,4.6,4.6,46,0.00,CLR,,0.00,WeatherDisplay:10.37,2013-12-24 05:08:00,
2013-12-23 23:11:00,-4.2,-19.8,29.24,WNW,292,4.6,4.6,46,0.00,CLR,,0.00,WeatherDisplay:10.37,2013-12-24 05:11:00,
2013-12-23 23:13:00,-4.0,-19.6,29.24,NW,315,5.8,5.8,46,0.00,CLR,,0.00,WeatherDisplay:10.37,2013-12-24 05:13:00,
2013-12-23 23:16:00,-4.2,-19.8,29.24,NNW,338,3.5,3.5,46,0.00,CLR,,0.00,WeatherDisplay:10.37,2013-12-24 05:16:00,
2013-12-23 23:17:00,-4.2,-19.8,29.24,NNW,338,3.5,3.5,46,0.00,CLR,,0.00,WeatherDisplay:10.37,2013-12-24 05:17:00,
2013-12-23 23:21:00,-4.4,-19.9,29.24,NNW,338,4.0,4.0,46,0.00,CLR,,0.00,WeatherDisplay:10.37,2013-12-24 05:21:00,
2013-12-23 23:22:00,-4.4,-19.9,29.24,NNW,338,2.3,2.6,46,0.00,CLR,,0.00,WeatherDisplay:10.37,2013-12-24 05:22:00,
2013-12-23 23:26:00,-4.4,-19.9,29.20,NW,315,2.4,2.4,46,0.00,CLR,,0.00,WeatherDisplay:10.37,2013-12-24 05:26:00,
2013-12-23 23:27:00,-4.4,-19.9,29.20,North,0,3.5,3.5,46,0.00,CLR,,0.00,WeatherDisplay:10.37,2013-12-24 05:27:00,
2013-12-23 23:28:00,-4.4,-19.9,29.20,North,0,2.6,2.6,46,0.00,CLR,,0.00,WeatherDisplay:10.37,2013-12-24 05:28:00,
2013-12-23 23:31:00,-4.5,-20.1,29.20,WNW,292,2.3,2.3,46,0.00,CLR,,0.00,WeatherDisplay:10.37,2013-12-24 05:31:00,
2013-12-23 23:32:00,-4.5,-20.1,29.20,NW,315,2.3,2.3,46,0.00,CLR,,0.00,WeatherDisplay:10.37,2013-12-24 05:32:00,
2013-12-23 23:33:00,-4.7,-20.3,29.20,NW,315,1.4,1.4,46,0.00,CLR,,0.00,WeatherDisplay:10.37,2013-12-24 05:33:00,
2013-12-23 23:37:00,-4.7,-20.3,29.20,NW,315,2.3,2.3,46,0.00,CLR,,0.00,WeatherDisplay:10.37,2013-12-24 05:37:00,
2013-12-23 23:38:00,-4.9,-20.4,29.20,WNW,292,2.3,2.4,46,0.00,CLR,,0.00,WeatherDisplay:10.37,2013-12-24 05:38:00,
2013-12-23 23:42:00,-5.1,-20.6,29.20,WNW,292,2.3,2.3,46,0.00,CLR,,0.00,WeatherDisplay:10.37,2013-12-24 05:42:00,
2013-12-23 23:43:00,-5.1,-20.6,29.20,WNW,292,2.3,2.3,46,0.00,CLR,,0.00,WeatherDisplay:10.37,2013-12-24 05:43:00,
2013-12-23 23:44:00,-5.1,-20.6,29.20,NW,315,2.3,2.3,46,0.00,CLR,,0.00,WeatherDisplay:10.37,2013-12-24 05:44:00,
2013-12-23 23:47:00,-5.3,-20.8,29.20,WNW,292,1.4,1.6,46,0.00,CLR,,0.00,WeatherDisplay:10.37,2013-12-24 05:47:00,
2013-12-23 23:48:00,-5.3,-20.8,29.20,WNW,292,1.2,1.6,46,0.00,CLR,,0.00,WeatherDisplay:10.37,2013-12-24 05:48:00,
2013-12-23 23:49:00,-5.4,-20.9,29.20,West,270,0.0,0.0,46,0.00,CLR,,0.00,WeatherDisplay:10.37,2013-12-24 05:49:00,
2013-12-23 23:52:00,-5.6,-21.1,29.20,West,270,1.2,1.2,46,0.00,CLR,,0.00,WeatherDisplay:10.37,2013-12-24 05:52:00,
2013-12-23 23:53:00,-5.6,-21.1,29.20,WNW,292,2.3,0.0,46,0.00,CLR,,0.00,WeatherDisplay:10.37,2013-12-24 05:53:00,
2013-12-23 23:55:00,-5.8,-21.3,29.20,West,270,1.2,1.4,46,0.00,CLR,,0.00,WeatherDisplay:10.37,2013-12-24 05:55:00,
2013-12-23 23:58:00,-5.8,-21.3,29.20,WNW,292,2.3,2.3,46,0.00,CLR,,0.00,WeatherDisplay:10.37,2013-12-24 05:58:00,
2013-12-23 23:59:00,-6.0,-21.4,29.20,WNW,292,2.4,2.4,46,0.00,CLR,,0.00,WeatherDisplay:10.37,2013-12-24 05:59:00,